Time,TemperatureF,DewpointF,PressureIn,WindDirection,WindDirectionDegrees,WindSpeedMPH,WindSpeedGustMPH,Humidity,HourlyPrecipIn,Conditions,Clouds,dailyrainin,SoftwareType,DateUTC
2013-01-20 00:01:00,8.4,-1.0,30.02,West,262,9.0,23.0,65,0.00,,,0.00,Wunderground v.1.15,2013-01-20 06:01:00,
2013-01-20 00:02:00,8.4,-1.0,30.02,WNW,285,8.0,23.0,65,0.00,,,0.00,Wunderground v.1.15,2013-01-20 06:02:00,
2013-01-20 00:05:00,8.3,0.2,30.02,NNW,332,9.0,23.0,69,0.00,,,0.00,Wunderground v.1.15,2013-01-20 06:05:00,
2013-01-20 00:07:00,8.1,1.2,30.02,NW,310,9.0,9.0,73,0.00,,,0.00,Wunderground v.1.15,2013-01-20 06:07:00,
2013-01-20 00:09:00,8.0,1.4,30.02,WSW,244,9.0,10.0,74,0.00,,,0.00,Wunderground v.1.15,2013-01-20 06:09:00,
2013-01-20 00:10:00,8.0,1.4,30.02,NNE,22,9.0,10.0,74,0.00,,,0.00,Wunderground v.1.15,2013-01-20 06:10:00,
2013-01-20 00:13:00,8.0,1.4,30.03,North,355,9.0,10.0,74,0.00,,,0.00,Wunderground v.1.15,2013-01-20 06:13:00,
2013-01-20 00:15:00,7.9,1.3,30.03,West,269,8.0,10.0,74,0.00,,,0.00,Wunderground v.1.15,2013-01-20 06:15:00,
2013-01-20 00:17:00,8.0,1.4,30.03,NW,323,7.0,7.0,74,0.00,,,0.00,Wunderground v.1.15,2013-01-20 06:17:00,
2013-01-20 00:19:00,8.0,1.4,30.04,North,355,7.0,19.0,74,0.00,,,0.00,Wunderground v.1.15,2013-01-20 06:19:00,
2013-01-20 00:21:00,7.8,0.9,30.03,NNW,344,8.0,19.0,73,0.00,,,0.00,Wunderground v.1.15,2013-01-20 06:21:00,
2013-01-20 00:24:00,7.7,0.8,30.04,SW,234,8.0,19.0,73,0.00,,,0.00,Wunderground v.1.15,2013-01-20 06:24:00,
2013-01-20 00:25:00,7.6,0.7,30.04,SW,233,8.0,19.0,73,0.00,,,0.00,Wunderground v.1.15,2013-01-20 06:25:00,
2013-01-20 00:26:00,7.6,0.7,30.04,North,5,8.0,8.0,73,0.00,,,0.00,Wunderground v.1.15,2013-01-20 06:26:00,
2013-01-20 00:31:00,7.5,0.7,30.04,WSW,258,8.0,27.0,73,0.00,,,0.00,Wunderground v.1.15,2013-01-20 06:31:00,
2013-01-20 00:32:00,7.4,0.3,30.04,West,277,8.0,27.0,72,0.00,,,0.00,Wunderground v.1.15,2013-01-20 06:32:00,
2013-01-20 00:33:00,7.4,-0.3,30.04,WSW,257,8.0,27.0,70,0.00,,,0.00,Wunderground v.1.15,2013-01-20 06:33:00,
2013-01-20 00:34:00,7.3,-0.4,30.04,WNW,286,8.0,27.0,70,0.00,,,0.00,Wunderground v.1.15,2013-01-20 06:34:00,
2013-01-20 00:36:00,7.3,-0.7,30.04,WSW,247,8.0,27.0,69,0.00,,,0.00,Wunderground v.1.15,2013-01-20 06:36:00,
2013-01-20 00:37:00,7.2,-0.8,30.05,WNW,291,8.0,27.0,69,0.00,,,0.00,Wunderground v.1.15,2013-01-20 06:37:00,
2013-01-20 00:40:00,7.2,-1.2,30.05,West,273,10.0,27.0,68,0.00,,,0.00,Wunderground v.1.15,2013-01-20 06:40:00,
2013-01-20 00:41:00,7.1,-1.2,30.05,WNW,301,9.0,27.0,68,0.00,,,0.00,Wunderground v.1.15,2013-01-20 06:41:00,
2013-01-20 00:42:00,7.1,-1.2,30.05,NE,43,9.0,27.0,68,0.00,,,0.00,Wunderground v.1.15,2013-01-20 06:42:00,
2013-01-20 00:43:00,7.1,-1.2,30.05,WNW,287,9.0,27.0,68,0.00,,,0.00,Wunderground v.1.15,2013-01-20 06:43:00,
2013-01-20 00:48:00,7.1,-0.9,30.06,North,360,8.0,27.0,69,0.00,,,0.00,Wunderground v.1.15,2013-01-20 06:48:00,
2013-01-20 00:49:00,7.1,-0.9,30.06,NNW,338,7.0,27.0,69,0.00,,,0.00,Wunderground v.1.15,2013-01-20 06:49:00,
2013-01-20 00:53:00,7.0,-1.3,30.06,NW,321,7.0,27.0,68,0.00,,,0.00,Wunderground v.1.15,2013-01-20 06:53:00,
2013-01-20 00:54:00,7.0,-1.7,30.06,NNE,15,7.0,27.0,67,0.00,,,0.00,Wunderground v.1.15,2013-01-20 06:54:00,
2013-01-20 00:55:00,7.0,-1.7,30.06,NNW,346,7.0,27.0,67,0.00,,,0.00,Wunderground v.1.15,2013-01-20 06:55:00,
2013-01-20 00:57:00,6.9,-1.8,30.06,NW,309,8.0,8.0,67,0.00,,,0.00,Wunderground v.1.15,2013-01-20 06:57:00,
2013-01-20 00:59:00,6.9,-1.8,30.07,NNW,335,8.0,8.0,67,0.00,,,0.00,Wunderground v.1.15,2013-01-20 06:59:00,
2013-01-20 01:00:00,6.9,-1.8,30.07,WSW,254,8.0,8.0,67,0.00,,,0.00,Wunderground v.1.15,2013-01-20 07:00:00,
2013-01-20 01:02:00,6.9,-1.4,30.07,North,360,7.0,8.0,68,0.00,,,0.00,Wunderground v.1.15,2013-01-20 07:02:00,
2013-01-20 01:03:00,6.9,-1.4,30.07,NNW,329,7.0,8.0,68,0.00,,,0.00,Wunderground v.1.15,2013-01-20 07:03:00,
2013-01-20 01:06:00,6.7,-1.9,30.07,North,360,7.0,15.0,67,0.00,,,0.00,Wunderground v.1.15,2013-01-20 07:06:00,
2013-01-20 01:08:00,6.7,-2.3,30.07,WSW,251,8.0,15.0,66,0.00,,,0.00,Wunderground v.1.15,2013-01-20 07:08:00,
2013-01-20 01:09:00,6.7,-1.9,30.07,NNW,341,7.0,15.0,67,0.00,,,0.00,Wunderground v.1.15,2013-01-20 07:09:00,
2013-01-20 01:10:00,6.6,-2.0,30.07,NW,306,8.0,15.0,67,0.00,,,0.00,Wunderground v.1.15,2013-01-20 07:10:00,
2013-01-20 01:12:00,6.7,-1.9,30.08,North,360,8.0,15.0,67,0.00,,,0.00,Wunderground v.1.15,2013-01-20 07:12:00,
2013-01-20 01:14:00,6.6,-2.0,30.08,NW,309,8.0,15.0,67,0.00,,,0.00,Wunderground v.1.15,2013-01-20 07:14:00,
2013-01-20 01:15:00,6.6,-2.0,30.08,NW,306,8.0,15.0,67,0.00,,,0.00,Wunderground v.1.15,2013-01-20 07:15:00,
2013-01-20 01:20:00,6.5,-2.1,30.08,WNW,302,7.0,11.0,67,0.00,,,0.00,Wunderground v.1.15,2013-01-20 07:20:00,
2013-01-20 01:22:00,6.5,-1.8,30.08,WNW,299,7.0,11.0,68,0.00,,,0.00,Wunderground v.1.15,2013-01-20 07:22:00,
2013-01-20 01:24:00,6.5,-1.8,30.08,West,275,6.0,11.0,68,0.00,,,0.00,Wunderground v.1.15,2013-01-20 07:24:00,
2013-01-20 01:27:00,6.4,-1.9,30.08,NW,319,7.0,24.0,68,0.00,,,0.00,Wunderground v.1.15,2013-01-20 07:27:00,
2013-01-20 01:28:00,6.4,-1.9,30.08,West,259,6.0,24.0,68,0.00,,,0.00,Wunderground v.1.15,2013-01-20 07:28:00,
2013-01-20 01:30:00,6.4,-2.0,30.09,NW,323,11.0,-999.0,68,-99.99,,,0.00,weatherlink.com 1.10,2013-01-20 07:30:00,
2013-01-20 01:33:00,6.4,-2.2,30.08,North,355,7.0,24.0,67,0.00,,,0.00,Wunderground v.1.15,2013-01-20 07:33:00,
2013-01-20 01:34:00,6.3,-2.3,30.09,WNW,290,7.0,24.0,67,0.00,,,0.00,Wunderground v.1.15,2013-01-20 07:34:00,
2013-01-20 01:35:00,6.3,-2.3,30.09,NNW,328,7.0,24.0,67,0.00,,,0.00,Wunderground v.1.15,2013-01-20 07:35:00,
2013-01-20 01:38:00,6.3,-2.0,30.09,West,272,7.0,24.0,68,0.00,,,0.00,Wunderground v.1.15,2013-01-20 07:38:00,
2013-01-20 01:41:00,6.3,-2.3,30.09,NNW,348,7.0,24.0,67,0.00,,,0.00,Wunderground v.1.15,2013-01-20 07:41:00,
2013-01-20 01:42:00,6.3,-2.0,30.09,West,268,7.0,24.0,68,0.00,,,0.00,Wunderground v.1.15,2013-01-20 07:42:00,
2013-01-20 01:44:00,6.3,-2.3,30.09,NW,313,7.0,24.0,67,0.00,,,0.00,Wunderground v.1.15,2013-01-20 07:44:00,
2013-01-20 01:45:00,6.3,-2.0,30.09,WNW,302,7.0,24.0,68,0.00,,,0.00,Wunderground v.1.15,2013-01-20 07:45:00,
2013-01-20 01:49:00,6.2,-2.1,30.10,West,269,6.0,24.0,68,0.00,,,0.00,Wunderground v.1.15,2013-01-20 07:49:00,
2013-01-20 01:50:00,6.2,-1.8,30.10,NW,318,6.0,24.0,69,0.00,,,0.00,Wunderground v.1.15,2013-01-20 07:50:00,
2013-01-20 01:52:00,6.2,-1.5,30.10,ENE,60,5.0,24.0,70,0.00,,,0.00,Wunderground v.1.15,2013-01-20 07:52:00,
2013-01-20 01:53:00,6.2,-1.8,30.10,SW,234,6.0,24.0,69,0.00,,,0.00,Wunderground v.1.15,2013-01-20 07:53:00,
2013-01-20 01:55:00,6.2,-1.8,30.11,NNW,339,6.0,24.0,69,0.00,,,0.00,Wunderground v.1.15,2013-01-20 07:55:00,
2013-01-20 01:57:00,6.2,-1.8,30.11,NW,313,6.0,6.0,69,0.00,,,0.00,Wunderground v.1.15,2013-01-20 07:57:00,
2013-01-20 01:59:00,6.1,-1.9,30.11,WSW,240,6.0,6.0,69,0.00,,,0.00,Wunderground v.1.15,2013-01-20 07:59:00,
2013-01-20 02:01:00,6.2,-1.8,30.11,West,264,6.0,6.0,69,0.00,,,0.00,Wunderground v.1.15,2013-01-20 08:01:00,
2013-01-20 02:05:00,6.1,-1.6,30.12,WNW,298,6.0,7.0,70,0.00,,,0.00,Wunderground v.1.15,2013-01-20 08:05:00,
2013-01-20 02:06:00,6.1,-1.9,30.12,North,11,6.0,6.0,69,0.00,,,0.00,Wunderground v.1.15,2013-01-20 08:06:00,
2013-01-20 02:09:00,6.1,-1.9,30.13,NNW,333,6.0,9.0,69,0.00,,,0.00,Wunderground v.1.15,2013-01-20 08:09:00,
2013-01-20 02:13:00,6.1,-1.6,30.14,NNW,331,7.0,9.0,70,0.00,,,0.00,Wunderground v.1.15,2013-01-20 08:13:00,
2013-01-20 02:15:00,6.0,-2.0,30.14,NNW,340,6.0,-999.0,70,-99.99,,,0.00,weatherlink.com 1.10,2013-01-20 08:15:00,
2013-01-20 02:16:00,6.0,-1.7,30.14,NNW,340,6.0,6.0,70,0.00,,,0.00,Wunderground v.1.15,2013-01-20 08:16:00,
2013-01-20 02:20:00,6.0,-2.0,30.14,West,272,6.0,15.0,69,0.00,,,0.00,Wunderground v.1.15,2013-01-20 08:20:00,
2013-01-20 02:22:00,5.9,-2.1,30.15,North,355,7.0,15.0,69,0.00,,,0.00,Wunderground v.1.15,2013-01-20 08:22:00,
2013-01-20 02:23:00,5.9,-1.8,30.15,WNW,290,7.0,15.0,70,0.00,,,0.00,Wunderground v.1.15,2013-01-20 08:23:00,
2013-01-20 02:24:00,5.9,-1.8,30.15,WNW,286,7.0,15.0,70,0.00,,,0.00,Wunderground v.1.15,2013-01-20 08:24:00,
2013-01-20 02:27:00,5.9,-1.2,30.15,West,274,7.0,11.0,72,0.00,,,0.00,Wunderground v.1.15,2013-01-20 08:27:00,
2013-01-20 02:29:00,5.9,-1.8,30.15,West,268,6.0,21.0,70,0.00,,,0.00,Wunderground v.1.15,2013-01-20 08:29:00,
2013-01-20 02:30:00,5.9,-1.8,30.15,NNE,33,6.0,21.0,70,0.00,,,0.00,Wunderground v.1.15,2013-01-20 08:30:00,
2013-01-20 02:32:00,5.8,-1.9,30.15,West,281,6.0,21.0,70,0.00,,,0.00,Wunderground v.1.15,2013-01-20 08:32:00,
2013-01-20 02:36:00,5.8,-1.9,30.16,North,360,6.0,6.0,70,0.00,,,0.00,Wunderground v.1.15,2013-01-20 08:36:00,
2013-01-20 02:37:00,5.7,-2.0,30.16,NW,323,6.0,21.0,70,0.00,,,0.00,Wunderground v.1.15,2013-01-20 08:37:00,
2013-01-20 02:38:00,5.8,-1.9,30.16,NW,322,6.0,21.0,70,0.00,,,0.00,Wunderground v.1.15,2013-01-20 08:38:00,
2013-01-20 02:40:00,5.8,-1.3,30.16,NNW,333,6.0,21.0,72,0.00,,,0.00,Wunderground v.1.15,2013-01-20 08:40:00,
2013-01-20 02:42:00,5.8,-1.6,30.16,West,259,5.0,21.0,71,0.00,,,0.00,Wunderground v.1.15,2013-01-20 08:42:00,
2013-01-20 02:43:00,5.7,-1.7,30.16,WNW,292,5.0,21.0,71,0.00,,,0.00,Wunderground v.1.15,2013-01-20 08:43:00,
2013-01-20 02:47:00,5.7,-1.7,30.16,West,267,5.0,21.0,71,0.00,,,0.00,Wunderground v.1.15,2013-01-20 08:47:00,
2013-01-20 02:48:00,5.7,-1.7,30.16,WNW,286,5.0,21.0,71,0.00,,,0.00,Wunderground v.1.15,2013-01-20 08:48:00,
2013-01-20 02:50:00,5.6,-1.8,30.16,SW,228,5.0,21.0,71,0.00,,,0.00,Wunderground v.1.15,2013-01-20 08:50:00,
2013-01-20 02:54:00,5.6,-1.5,30.17,NNW,346,5.0,21.0,72,0.00,,,0.00,Wunderground v.1.15,2013-01-20 08:54:00,
2013-01-20 02:57:00,5.6,-1.5,30.17,West,271,5.0,13.0,72,0.00,,,0.00,Wunderground v.1.15,2013-01-20 08:57:00,
2013-01-20 03:02:00,5.6,-1.5,30.17,North,350,6.0,13.0,72,0.00,,,0.00,Wunderground v.1.15,2013-01-20 09:02:00,
2013-01-20 03:03:00,5.6,-1.5,30.17,West,270,6.0,15.0,72,0.00,,,0.00,Wunderground v.1.15,2013-01-20 09:03:00,
2013-01-20 03:05:00,5.5,-1.6,30.17,West,272,6.0,15.0,72,0.00,,,0.00,Wunderground v.1.15,2013-01-20 09:05:00,
2013-01-20 03:08:00,5.5,-1.6,30.17,NNW,327,5.0,8.0,72,0.00,,,0.00,Wunderground v.1.15,2013-01-20 09:08:00,
2013-01-20 03:10:00,5.5,-1.6,30.17,NNE,22,5.0,8.0,72,0.00,,,0.00,Wunderground v.1.15,2013-01-20 09:10:00,
2013-01-20 03:12:00,5.5,-1.3,30.17,NW,306,5.0,8.0,73,0.00,,,0.00,Wunderground v.1.15,2013-01-20 09:12:00,
2013-01-20 03:13:00,5.5,-1.6,30.17,NNW,338,5.0,8.0,72,0.00,,,0.00,Wunderground v.1.15,2013-01-20 09:13:00,
2013-01-20 03:17:00,5.5,-1.3,30.17,SW,234,5.0,6.0,73,0.00,,,0.00,Wunderground v.1.15,2013-01-20 09:17:00,
2013-01-20 03:18:00,5.4,-1.4,30.18,NW,304,5.0,6.0,73,0.00,,,0.00,Wunderground v.1.15,2013-01-20 09:18:00,
2013-01-20 03:19:00,5.4,-1.7,30.18,NW,311,5.0,6.0,72,0.00,,,0.00,Wunderground v.1.15,2013-01-20 09:19:00,
2013-01-20 03:22:00,5.4,-1.4,30.18,West,269,6.0,6.0,73,0.00,,,0.00,Wunderground v.1.15,2013-01-20 09:22:00,
2013-01-20 03:24:00,5.4,-1.7,30.18,WNW,296,6.0,6.0,72,0.00,,,0.00,Wunderground v.1.15,2013-01-20 09:24:00,
2013-01-20 03:25:00,5.3,-1.8,30.18,West,263,6.0,7.0,72,0.00,,,0.00,Wunderground v.1.15,2013-01-20 09:25:00,
2013-01-20 03:28:00,5.3,-1.8,30.18,WSW,254,6.0,17.0,72,0.00,,,0.00,Wunderground v.1.15,2013-01-20 09:28:00,
2013-01-20 03:29:00,5.3,-1.8,30.18,WNW,294,6.0,17.0,72,0.00,,,0.00,Wunderground v.1.15,2013-01-20 09:29:00,
2013-01-20 03:31:00,5.1,-2.0,30.18,West,268,6.0,17.0,72,0.00,,,0.00,Wunderground v.1.15,2013-01-20 09:31:00,
2013-01-20 03:34:00,5.1,-1.7,30.18,NNW,327,5.0,17.0,73,0.00,,,0.00,Wunderground v.1.15,2013-01-20 09:34:00,
2013-01-20 03:36:00,5.1,-1.7,30.18,West,263,5.0,5.0,73,0.00,,,0.00,Wunderground v.1.15,2013-01-20 09:36:00,
2013-01-20 03:37:00,5.1,-1.4,30.18,NW,315,5.0,17.0,74,0.00,,,0.00,Wunderground v.1.15,2013-01-20 09:37:00,
2013-01-20 03:38:00,5.1,-1.4,30.18,West,266,5.0,17.0,74,0.00,,,0.00,Wunderground v.1.15,2013-01-20 09:38:00,
2013-01-20 03:42:00,5.1,-1.1,30.19,North,350,4.0,17.0,75,0.00,,,0.00,Wunderground v.1.15,2013-01-20 09:42:00,
2013-01-20 03:43:00,5.0,-1.2,30.19,West,272,4.0,17.0,75,0.00,,,0.00,Wunderground v.1.15,2013-01-20 09:43:00,
2013-01-20 03:44:00,5.0,-2.0,30.19,West,269,9.0,-999.0,74,-99.99,,,0.00,weatherlink.com 1.10,2013-01-20 09:44:00,
2013-01-20 03:46:00,5.0,-1.5,30.19,West,277,5.0,17.0,74,0.00,,,0.00,Wunderground v.1.15,2013-01-20 09:46:00,
2013-01-20 03:51:00,4.9,-1.6,30.19,WNW,296,6.0,17.0,74,0.00,,,0.00,Wunderground v.1.15,2013-01-20 09:51:00,
2013-01-20 03:52:00,4.9,-1.6,30.19,North,355,6.0,17.0,74,0.00,,,0.00,Wunderground v.1.15,2013-01-20 09:52:00,
2013-01-20 03:53:00,4.9,-1.6,30.19,WNW,283,6.0,17.0,74,0.00,,,0.00,Wunderground v.1.15,2013-01-20 09:53:00,
2013-01-20 03:57:00,4.9,-1.6,30.19,NNW,336,7.0,7.0,74,0.00,,,0.00,Wunderground v.1.15,2013-01-20 09:57:00,
2013-01-20 03:59:00,4.8,-1.7,30.19,West,269,6.0,7.0,74,0.00,,,0.00,Wunderground v.1.15,2013-01-20 09:59:00,
2013-01-20 04:01:00,4.8,-2.0,30.19,NW,310,4.0,-999.0,74,-99.99,,,0.00,weatherlink.com 1.10,2013-01-20 10:01:00,
2013-01-20 04:03:00,4.7,-1.8,30.20,NNW,347,5.0,8.0,74,0.00,,,0.00,Wunderground v.1.15,2013-01-20 10:03:00,
2013-01-20 04:04:00,4.8,-1.4,30.20,West,262,5.0,16.0,75,0.00,,,0.00,Wunderground v.1.15,2013-01-20 10:04:00,
2013-01-20 04:07:00,4.7,-1.8,30.20,NW,321,5.0,5.0,74,0.00,,,0.00,Wunderground v.1.15,2013-01-20 10:07:00,
2013-01-20 04:08:00,4.8,-1.7,30.20,West,268,5.0,6.0,74,0.00,,,0.00,Wunderground v.1.15,2013-01-20 10:08:00,
2013-01-20 04:09:00,4.7,-1.5,30.20,WSW,256,5.0,7.0,75,0.00,,,0.00,Wunderground v.1.15,2013-01-20 10:09:00,
2013-01-20 04:12:00,4.7,-1.8,30.20,NNE,21,6.0,7.0,74,0.00,,,0.00,Wunderground v.1.15,2013-01-20 10:12:00,
2013-01-20 04:14:00,4.7,-1.8,30.21,NNW,333,6.0,7.0,74,0.00,,,0.00,Wunderground v.1.15,2013-01-20 10:14:00,
2013-01-20 04:18:00,4.7,-1.5,30.21,NNW,342,5.0,6.0,75,0.00,,,0.00,Wunderground v.1.15,2013-01-20 10:18:00,
2013-01-20 04:19:00,4.7,-1.5,30.21,West,270,6.0,6.0,75,0.00,,,0.00,Wunderground v.1.15,2013-01-20 10:19:00,
2013-01-20 04:22:00,4.7,-1.5,30.21,West,267,5.0,6.0,75,0.00,,,0.00,Wunderground v.1.15,2013-01-20 10:22:00,
2013-01-20 04:23:00,4.6,-1.6,30.21,West,269,5.0,6.0,75,0.00,,,0.00,Wunderground v.1.15,2013-01-20 10:23:00,
2013-01-20 04:24:00,4.6,-1.6,30.21,NNW,348,5.0,6.0,75,0.00,,,0.00,Wunderground v.1.15,2013-01-20 10:24:00,
2013-01-20 04:28:00,4.6,-1.6,30.21,NW,317,5.0,17.0,75,0.00,,,0.00,Wunderground v.1.15,2013-01-20 10:28:00,
2013-01-20 04:29:00,4.5,-1.7,30.21,NW,320,5.0,17.0,75,0.00,,,0.00,Wunderground v.1.15,2013-01-20 10:29:00,
2013-01-20 04:30:00,4.5,-2.0,30.21,WNW,294,7.0,-999.0,75,-99.99,,,0.00,weatherlink.com 1.10,2013-01-20 10:30:00,
2013-01-20 04:36:00,4.5,-1.7,30.22,NW,304,6.0,6.0,75,0.00,,,0.00,Wunderground v.1.15,2013-01-20 10:36:00,
2013-01-20 04:37:00,4.6,-1.6,30.22,NE,41,6.0,17.0,75,0.00,,,0.00,Wunderground v.1.15,2013-01-20 10:37:00,
2013-01-20 04:39:00,4.6,-1.3,30.22,WNW,282,6.0,17.0,76,0.00,,,0.00,Wunderground v.1.15,2013-01-20 10:39:00,
2013-01-20 04:41:00,4.5,-1.4,30.21,NW,307,5.0,17.0,76,0.00,,,0.00,Wunderground v.1.15,2013-01-20 10:41:00,
2013-01-20 04:42:00,4.5,-1.4,30.22,NNE,27,5.0,17.0,76,0.00,,,0.00,Wunderground v.1.15,2013-01-20 10:42:00,
2013-01-20 04:46:00,4.5,-2.0,30.22,West,279,9.0,-999.0,76,-99.99,,,0.00,weatherlink.com 1.10,2013-01-20 10:46:00,
2013-01-20 04:48:00,4.5,-1.7,30.22,NNW,338,5.0,17.0,75,0.00,,,0.00,Wunderground v.1.15,2013-01-20 10:48:00,
2013-01-20 04:50:00,4.5,-1.4,30.23,NW,321,5.0,17.0,76,0.00,,,0.00,Wunderground v.1.15,2013-01-20 10:50:00,
2013-01-20 04:54:00,4.5,-1.4,30.22,WNW,288,5.0,17.0,76,0.00,,,0.00,Wunderground v.1.15,2013-01-20 10:54:00,
2013-01-20 04:55:00,4.5,-1.4,30.22,North,355,5.0,17.0,76,0.00,,,0.00,Wunderground v.1.15,2013-01-20 10:55:00,
2013-01-20 04:57:00,4.5,-1.4,30.23,West,281,5.0,9.0,76,0.00,,,0.00,Wunderground v.1.15,2013-01-20 10:57:00,
2013-01-20 04:59:00,4.4,-1.8,30.22,NNW,348,5.0,9.0,75,0.00,,,0.00,Wunderground v.1.15,2013-01-20 10:59:00,
2013-01-20 05:02:00,4.3,-1.9,30.22,North,5,6.0,9.0,75,0.00,,,0.00,Wunderground v.1.15,2013-01-20 11:02:00,
2013-01-20 05:05:00,4.2,-2.0,30.22,NW,312,6.0,9.0,75,0.00,,,0.00,Wunderground v.1.15,2013-01-20 11:05:00,
2013-01-20 05:06:00,4.2,-2.0,30.22,NW,310,6.0,6.0,75,0.00,,,0.00,Wunderground v.1.15,2013-01-20 11:06:00,
2013-01-20 05:10:00,4.3,-1.3,30.23,West,273,5.0,6.0,77,0.00,,,0.00,Wunderground v.1.15,2013-01-20 11:10:00,
2013-01-20 05:11:00,4.3,-1.6,30.23,North,5,4.0,6.0,76,0.00,,,0.00,Wunderground v.1.15,2013-01-20 11:11:00,
2013-01-20 05:12:00,4.3,-1.3,30.23,NNW,341,4.0,6.0,77,0.00,,,0.00,Wunderground v.1.15,2013-01-20 11:12:00,
2013-01-20 05:14:00,4.4,-1.2,30.24,NNW,336,4.0,6.0,77,0.00,,,0.00,Wunderground v.1.15,2013-01-20 11:14:00,
2013-01-20 05:17:00,4.3,-1.3,30.24,WNW,288,3.0,5.0,77,0.00,,,0.00,Wunderground v.1.15,2013-01-20 11:17:00,
2013-01-20 05:19:00,4.2,-1.7,30.24,North,5,4.0,10.0,76,0.00,,,0.00,Wunderground v.1.15,2013-01-20 11:19:00,
2013-01-20 05:21:00,4.2,-1.7,30.24,NNE,27,4.0,10.0,76,0.00,,,0.00,Wunderground v.1.15,2013-01-20 11:21:00,
2013-01-20 05:24:00,4.1,-1.8,30.25,West,271,5.0,10.0,76,0.00,,,0.00,Wunderground v.1.15,2013-01-20 11:24:00,
2013-01-20 05:25:00,4.1,-2.1,30.25,NW,304,5.0,10.0,75,0.00,,,0.00,Wunderground v.1.15,2013-01-20 11:25:00,
2013-01-20 05:27:00,4.1,-1.8,30.25,West,276,5.0,16.0,76,0.00,,,0.00,Wunderground v.1.15,2013-01-20 11:27:00,
2013-01-20 05:30:00,4.1,-2.0,30.25,North,5,2.0,-999.0,76,-99.99,,,0.00,weatherlink.com 1.10,2013-01-20 11:30:00,
2013-01-20 05:31:00,4.1,-1.8,30.25,West,270,4.0,16.0,76,0.00,,,0.00,Wunderground v.1.15,2013-01-20 11:31:00,
2013-01-20 05:35:00,4.2,-1.1,30.25,WNW,294,4.0,16.0,78,0.00,,,0.00,Wunderground v.1.15,2013-01-20 11:35:00,
2013-01-20 05:37:00,4.1,-1.8,30.25,West,279,4.0,16.0,76,0.00,,,0.00,Wunderground v.1.15,2013-01-20 11:37:00,
2013-01-20 05:38:00,4.1,-2.1,30.25,WSW,250,4.0,16.0,75,0.00,,,0.00,Wunderground v.1.15,2013-01-20 11:38:00,
2013-01-20 05:39:00,4.1,-2.1,30.25,NNE,26,5.0,16.0,75,0.00,,,0.00,Wunderground v.1.15,2013-01-20 11:39:00,
2013-01-20 05:41:00,4.1,-2.1,30.25,WNW,302,6.0,16.0,75,0.00,,,0.00,Wunderground v.1.15,2013-01-20 11:41:00,
2013-01-20 05:44:00,4.0,-2.2,30.26,West,278,7.0,16.0,75,0.00,,,0.00,Wunderground v.1.15,2013-01-20 11:44:00,
2013-01-20 05:46:00,4.0,-1.9,30.25,NW,304,6.0,6.0,76,0.00,,,0.00,Wunderground v.1.15,2013-01-20 11:46:00,
2013-01-20 05:47:00,4.0,-1.9,30.26,North,355,6.0,8.0,76,0.00,,,0.00,Wunderground v.1.15,2013-01-20 11:47:00,
2013-01-20 05:52:00,3.9,-2.5,30.26,NW,326,6.0,16.0,74,0.00,,,0.00,Wunderground v.1.15,2013-01-20 11:52:00,
2013-01-20 05:53:00,3.9,-2.5,30.26,WNW,300,6.0,16.0,74,0.00,,,0.00,Wunderground v.1.15,2013-01-20 11:53:00,
2013-01-20 05:54:00,3.9,-2.5,30.26,WSW,257,6.0,16.0,74,0.00,,,0.00,Wunderground v.1.15,2013-01-20 11:54:00,
2013-01-20 05:58:00,3.9,-2.3,30.26,NNW,346,6.0,6.0,75,0.00,,,0.00,Wunderground v.1.15,2013-01-20 11:58:00,
2013-01-20 05:59:00,3.9,-2.3,30.26,West,265,6.0,14.0,75,0.00,,,0.00,Wunderground v.1.15,2013-01-20 11:59:00,
2013-01-20 06:00:00,3.9,-2.3,30.26,WSW,246,6.0,14.0,75,0.00,,,0.00,Wunderground v.1.15,2013-01-20 12:00:00,
2013-01-20 06:01:00,3.9,-3.0,30.26,NNE,27,2.0,-999.0,74,-99.99,,,0.00,weatherlink.com 1.10,2013-01-20 12:01:00,
2013-01-20 06:04:00,3.8,-2.6,30.27,West,265,5.0,14.0,74,0.00,,,0.00,Wunderground v.1.15,2013-01-20 12:04:00,
2013-01-20 06:06:00,3.8,-2.9,30.27,West,270,6.0,6.0,73,0.00,,,0.00,Wunderground v.1.15,2013-01-20 12:06:00,
2013-01-20 06:07:00,3.9,-2.5,30.27,NW,325,5.0,6.0,74,0.00,,,0.00,Wunderground v.1.15,2013-01-20 12:07:00,
2013-01-20 06:11:00,3.9,-2.3,30.28,West,278,5.0,6.0,75,0.00,,,0.00,Wunderground v.1.15,2013-01-20 12:11:00,
2013-01-20 06:12:00,3.9,-2.0,30.28,WNW,282,4.0,13.0,76,0.00,,,0.00,Wunderground v.1.15,2013-01-20 12:12:00,
2013-01-20 06:14:00,3.9,-2.3,30.27,NW,309,5.0,13.0,75,0.00,,,0.00,Wunderground v.1.15,2013-01-20 12:14:00,
2013-01-20 06:19:00,3.9,-2.3,30.27,North,355,4.0,5.0,75,0.00,,,0.00,Wunderground v.1.15,2013-01-20 12:19:00,
2013-01-20 06:20:00,4.0,-2.2,30.27,NNW,346,4.0,8.0,75,0.00,,,0.00,Wunderground v.1.15,2013-01-20 12:20:00,
2013-01-20 06:22:00,4.1,-1.2,30.27,WSW,257,4.0,8.0,78,0.00,,,0.00,Wunderground v.1.15,2013-01-20 12:22:00,
2013-01-20 06:24:00,4.1,-1.2,30.27,NW,311,3.0,8.0,78,0.00,,,0.00,Wunderground v.1.15,2013-01-20 12:24:00,
2013-01-20 06:25:00,4.0,-1.6,30.27,NNW,346,3.0,9.0,77,0.00,,,0.00,Wunderground v.1.15,2013-01-20 12:25:00,
2013-01-20 06:27:00,3.9,-2.3,30.27,NW,322,3.0,18.0,75,0.00,,,0.00,Wunderground v.1.15,2013-01-20 12:27:00,
2013-01-20 06:31:00,3.8,-2.0,30.27,NNW,342,9.0,-999.0,76,-99.99,,,0.00,weatherlink.com 1.10,2013-01-20 12:31:00,
2013-01-20 06:32:00,3.8,-2.1,30.27,NNE,17,5.0,18.0,76,0.00,,,0.00,Wunderground v.1.15,2013-01-20 12:32:00,
2013-01-20 06:33:00,3.8,-2.4,30.27,West,270,5.0,18.0,75,0.00,,,0.00,Wunderground v.1.15,2013-01-20 12:33:00,
2013-01-20 06:38:00,3.8,-2.1,30.27,NNW,342,5.0,18.0,76,0.00,,,0.00,Wunderground v.1.15,2013-01-20 12:38:00,
2013-01-20 06:39:00,3.8,-2.1,30.27,NNW,342,5.0,18.0,76,0.00,,,0.00,Wunderground v.1.15,2013-01-20 12:39:00,
2013-01-20 06:44:00,3.9,-1.7,30.27,NNW,333,4.0,18.0,77,0.00,,,0.00,Wunderground v.1.15,2013-01-20 12:44:00,
2013-01-20 06:47:00,4.0,-1.3,30.28,West,266,4.0,18.0,78,0.00,,,0.00,Wunderground v.1.15,2013-01-20 12:47:00,
2013-01-20 06:50:00,3.8,-2.1,30.28,NNW,343,4.0,18.0,76,0.00,,,0.00,Wunderground v.1.15,2013-01-20 12:50:00,
2013-01-20 06:51:00,3.7,-2.2,30.28,NW,315,4.0,18.0,76,0.00,,,0.00,Wunderground v.1.15,2013-01-20 12:51:00,
2013-01-20 06:52:00,3.7,-2.5,30.28,West,281,4.0,18.0,75,0.00,,,0.00,Wunderground v.1.15,2013-01-20 12:52:00,
2013-01-20 06:55:00,3.7,-2.2,30.28,NNW,329,4.0,18.0,76,0.00,,,0.00,Wunderground v.1.15,2013-01-20 12:55:00,
2013-01-20 06:57:00,3.7,-2.2,30.28,NNW,347,3.0,4.0,76,0.00,,,0.00,Wunderground v.1.15,2013-01-20 12:57:00,
2013-01-20 06:58:00,3.7,-1.9,30.28,NNW,347,3.0,4.0,77,0.00,,,0.00,Wunderground v.1.15,2013-01-20 12:58:00,
2013-01-20 07:01:00,3.7,-1.6,30.28,West,273,3.0,7.0,78,0.00,,,0.00,Wunderground v.1.15,2013-01-20 13:01:00,
2013-01-20 07:02:00,3.5,-2.7,30.28,WSW,247,3.0,7.0,75,0.00,,,0.00,Wunderground v.1.15,2013-01-20 13:02:00,
2013-01-20 07:05:00,3.7,-1.6,30.28,NNW,333,3.0,7.0,78,0.00,,,0.00,Wunderground v.1.15,2013-01-20 13:05:00,
2013-01-20 07:08:00,3.8,-1.3,30.29,NW,310,4.0,5.0,79,0.00,,,0.00,Wunderground v.1.15,2013-01-20 13:08:00,
2013-01-20 07:11:00,3.6,-2.0,30.29,West,270,3.0,5.0,77,0.00,,,0.00,Wunderground v.1.15,2013-01-20 13:11:00,
2013-01-20 07:12:00,3.5,-2.4,30.29,WSW,258,3.0,5.0,76,0.00,,,0.00,Wunderground v.1.15,2013-01-20 13:12:00,
2013-01-20 07:15:00,3.3,-2.8,30.30,West,271,4.0,7.0,75,0.00,,,0.00,Wunderground v.1.15,2013-01-20 13:15:00,
2013-01-20 07:16:00,3.2,-2.9,30.30,WNW,297,4.0,4.0,75,0.00,,,0.00,Wunderground v.1.15,2013-01-20 13:16:00,
2013-01-20 07:17:00,3.2,-2.9,30.30,NW,317,5.0,9.0,75,0.00,,,0.00,Wunderground v.1.15,2013-01-20 13:17:00,
2013-01-20 07:21:00,3.2,-2.9,30.30,WNW,282,5.0,9.0,75,0.00,,,0.00,Wunderground v.1.15,2013-01-20 13:21:00,
2013-01-20 07:22:00,3.2,-2.9,30.30,North,350,5.0,9.0,75,0.00,,,0.00,Wunderground v.1.15,2013-01-20 13:22:00,
2013-01-20 07:25:00,3.2,-2.9,30.31,West,280,5.0,9.0,75,0.00,,,0.00,Wunderground v.1.15,2013-01-20 13:25:00,
2013-01-20 07:26:00,3.2,-2.9,30.31,NNW,328,5.0,5.0,75,0.00,,,0.00,Wunderground v.1.15,2013-01-20 13:26:00,
2013-01-20 07:28:00,3.2,-2.9,30.31,NW,321,4.0,17.0,75,0.00,,,0.00,Wunderground v.1.15,2013-01-20 13:28:00,
2013-01-20 07:32:00,3.3,-2.6,30.32,NW,320,4.0,17.0,76,0.00,,,0.00,Wunderground v.1.15,2013-01-20 13:32:00,
2013-01-20 07:33:00,3.2,-2.7,30.32,NNW,336,4.0,17.0,76,0.00,,,0.00,Wunderground v.1.15,2013-01-20 13:33:00,
2013-01-20 07:35:00,3.2,-2.7,30.32,WNW,295,4.0,17.0,76,0.00,,,0.00,Wunderground v.1.15,2013-01-20 13:35:00,
2013-01-20 07:39:00,3.2,-2.7,30.32,West,271,5.0,17.0,76,0.00,,,0.00,Wunderground v.1.15,2013-01-20 13:39:00,
2013-01-20 07:40:00,3.2,-2.4,30.32,North,5,5.0,17.0,77,0.00,,,0.00,Wunderground v.1.15,2013-01-20 13:40:00,
2013-01-20 07:41:00,3.3,-2.3,30.32,NNW,327,5.0,17.0,77,0.00,,,0.00,Wunderground v.1.15,2013-01-20 13:41:00,
2013-01-20 07:42:00,3.3,-2.0,30.32,North,355,4.0,17.0,78,0.00,,,0.00,Wunderground v.1.15,2013-01-20 13:42:00,
2013-01-20 07:47:00,3.3,-2.0,30.32,West,276,1.0,-999.0,77,-99.99,,,0.00,weatherlink.com 1.10,2013-01-20 13:47:00,
2013-01-20 07:48:00,3.4,-1.9,30.32,WNW,298,4.0,17.0,78,0.00,,,0.00,Wunderground v.1.15,2013-01-20 13:48:00,
2013-01-20 07:52:00,3.5,-1.6,30.32,NW,313,4.0,17.0,79,0.00,,,0.00,Wunderground v.1.15,2013-01-20 13:52:00,
2013-01-20 07:53:00,3.6,-1.5,30.32,West,265,4.0,17.0,79,0.00,,,0.00,Wunderground v.1.15,2013-01-20 13:53:00,
2013-01-20 07:55:00,3.5,-1.8,30.32,NNW,327,4.0,17.0,78,0.00,,,0.00,Wunderground v.1.15,2013-01-20 13:55:00,
2013-01-20 07:57:00,3.5,-1.8,30.32,North,355,4.0,4.0,78,0.00,,,0.00,Wunderground v.1.15,2013-01-20 13:57:00,
2013-01-20 07:58:00,3.4,-2.2,30.32,NNW,344,4.0,4.0,77,0.00,,,0.00,Wunderground v.1.15,2013-01-20 13:58:00,
2013-01-20 08:00:00,3.4,-1.9,30.32,WNW,291,4.0,6.0,78,0.00,,,0.00,Wunderground v.1.15,2013-01-20 14:00:00,
2013-01-20 08:03:00,3.4,-2.2,30.31,West,263,5.0,6.0,77,0.00,,,0.00,Wunderground v.1.15,2013-01-20 14:03:00,
2013-01-20 08:06:00,3.3,-2.3,30.31,NW,325,4.0,6.0,77,0.00,,,0.00,Wunderground v.1.15,2013-01-20 14:06:00,
2013-01-20 08:08:00,3.3,-2.3,30.31,West,269,4.0,6.0,77,0.00,,,0.00,Wunderground v.1.15,2013-01-20 14:08:00,
2013-01-20 08:09:00,3.3,-2.0,30.31,WNW,293,5.0,6.0,78,0.00,,,0.00,Wunderground v.1.15,2013-01-20 14:09:00,
2013-01-20 08:12:00,3.3,-2.3,30.32,North,5,5.0,6.0,77,0.00,,,0.00,Wunderground v.1.15,2013-01-20 14:12:00,
2013-01-20 08:15:00,3.4,-1.9,30.32,North,350,5.0,10.0,78,0.00,,,0.00,Wunderground v.1.15,2013-01-20 14:15:00,
2013-01-20 08:16:00,3.3,-2.0,30.32,WSW,252,5.0,5.0,78,0.00,,,0.00,Wunderground v.1.15,2013-01-20 14:16:00,
2013-01-20 08:20:00,3.2,-2.4,30.33,WNW,288,5.0,8.0,77,0.00,,,0.00,Wunderground v.1.15,2013-01-20 14:20:00,
2013-01-20 08:21:00,3.2,-2.4,30.33,NW,323,5.0,10.0,77,0.00,,,0.00,Wunderground v.1.15,2013-01-20 14:21:00,
2013-01-20 08:22:00,3.2,-2.7,30.33,North,355,5.0,10.0,76,0.00,,,0.00,Wunderground v.1.15,2013-01-20 14:22:00,
2013-01-20 08:24:00,3.3,-2.3,30.33,NNW,327,5.0,10.0,77,0.00,,,0.00,Wunderground v.1.15,2013-01-20 14:24:00,
2013-01-20 08:27:00,3.3,-2.3,30.33,NW,319,4.0,13.0,77,0.00,,,0.00,Wunderground v.1.15,2013-01-20 14:27:00,
2013-01-20 08:28:00,3.4,-1.9,30.33,NW,317,4.0,13.0,78,0.00,,,0.00,Wunderground v.1.15,2013-01-20 14:28:00,
2013-01-20 08:31:00,3.4,-2.0,30.34,WNW,293,7.0,-999.0,77,-99.99,,,0.00,weatherlink.com 1.10,2013-01-20 14:31:00,
2013-01-20 08:33:00,3.4,-2.2,30.34,North,360,3.0,13.0,77,0.00,,,0.00,Wunderground v.1.15,2013-01-20 14:33:00,
2013-01-20 08:34:00,3.5,-1.8,30.34,West,271,3.0,13.0,78,0.00,,,0.00,Wunderground v.1.15,2013-01-20 14:34:00,
2013-01-20 08:36:00,3.5,-2.1,30.34,NW,320,3.0,13.0,77,0.00,,,0.00,Wunderground v.1.15,2013-01-20 14:36:00,
2013-01-20 08:39:00,3.5,-2.1,30.34,WNW,286,4.0,13.0,77,0.00,,,0.00,Wunderground v.1.15,2013-01-20 14:39:00,
2013-01-20 08:43:00,3.6,-1.7,30.34,West,260,4.0,13.0,78,0.00,,,0.00,Wunderground v.1.15,2013-01-20 14:43:00,
2013-01-20 08:44:00,3.6,-1.5,30.33,West,274,4.0,13.0,79,0.00,,,0.00,Wunderground v.1.15,2013-01-20 14:44:00,
2013-01-20 08:45:00,3.6,-1.7,30.33,WNW,284,4.0,13.0,78,0.00,,,0.00,Wunderground v.1.15,2013-01-20 14:45:00,
2013-01-20 08:47:00,3.5,-3.0,30.34,NW,323,5.0,-999.0,76,-99.99,,,0.00,weatherlink.com 1.10,2013-01-20 14:47:00,
2013-01-20 08:49:00,3.4,-2.2,30.34,NNW,334,4.0,13.0,77,0.00,,,0.00,Wunderground v.1.15,2013-01-20 14:49:00,
2013-01-20 08:51:00,3.5,-2.1,30.34,NW,319,4.0,13.0,77,0.00,,,0.00,Wunderground v.1.15,2013-01-20 14:51:00,
2013-01-20 08:55:00,3.6,-2.0,30.34,West,279,4.0,13.0,77,0.00,,,0.00,Wunderground v.1.15,2013-01-20 14:55:00,
2013-01-20 08:57:00,3.6,-2.0,30.34,NW,305,4.0,6.0,77,0.00,,,0.00,Wunderground v.1.15,2013-01-20 14:57:00,
2013-01-20 08:58:00,3.6,-2.3,30.34,West,277,4.0,6.0,76,0.00,,,0.00,Wunderground v.1.15,2013-01-20 14:58:00,
2013-01-20 09:01:00,3.6,-2.0,30.33,NW,321,4.0,6.0,77,0.00,,,0.00,Wunderground v.1.15,2013-01-20 15:01:00,
2013-01-20 09:02:00,3.7,-1.9,30.33,West,277,4.0,6.0,77,0.00,,,0.00,Wunderground v.1.15,2013-01-20 15:02:00,
2013-01-20 09:03:00,3.7,-1.9,30.33,NNW,348,3.0,10.0,77,0.00,,,0.00,Wunderground v.1.15,2013-01-20 15:03:00,
2013-01-20 09:07:00,3.8,-2.1,30.34,West,266,4.0,7.0,76,0.00,,,0.00,Wunderground v.1.15,2013-01-20 15:07:00,
2013-01-20 09:08:00,3.8,-2.4,30.33,West,269,4.0,7.0,75,0.00,,,0.00,Wunderground v.1.15,2013-01-20 15:08:00,
2013-01-20 09:09:00,3.8,-2.4,30.33,WNW,292,4.0,7.0,75,0.00,,,0.00,Wunderground v.1.15,2013-01-20 15:09:00,
2013-01-20 09:13:00,3.8,-2.6,30.33,West,277,6.0,12.0,74,0.00,,,0.00,Wunderground v.1.15,2013-01-20 15:13:00,
2013-01-20 09:15:00,3.9,-2.3,30.33,WNW,283,6.0,12.0,75,0.00,,,0.00,Wunderground v.1.15,2013-01-20 15:15:00,
2013-01-20 09:16:00,3.8,-2.4,30.33,WNW,290,6.0,6.0,75,0.00,,,0.00,Wunderground v.1.15,2013-01-20 15:16:00,
2013-01-20 09:17:00,4.0,-2.0,30.33,NW,306,2.0,-999.0,75,-99.99,,,0.00,weatherlink.com 1.10,2013-01-20 15:17:00,
2013-01-20 09:21:00,4.2,-1.7,30.33,NW,324,5.0,6.0,76,0.00,,,0.00,Wunderground v.1.15,2013-01-20 15:21:00,
2013-01-20 09:23:00,4.6,-1.0,30.34,West,279,4.0,6.0,77,0.00,,,0.00,Wunderground v.1.15,2013-01-20 15:23:00,
2013-01-20 09:24:00,4.7,-1.2,30.34,West,279,4.0,6.0,76,0.00,,,0.00,Wunderground v.1.15,2013-01-20 15:24:00,
2013-01-20 09:29:00,5.5,0.1,30.34,WNW,300,4.0,11.0,78,0.00,,,0.00,Wunderground v.1.15,2013-01-20 15:29:00,
2013-01-20 09:30:00,5.5,0.1,30.34,West,261,4.0,11.0,78,0.00,,,0.00,Wunderground v.1.15,2013-01-20 15:30:00,
2013-01-20 09:32:00,5.3,-1.5,30.34,West,266,4.0,12.0,73,0.00,,,0.00,Wunderground v.1.15,2013-01-20 15:32:00,
2013-01-20 09:33:00,5.3,-1.5,30.34,WNW,287,4.0,12.0,73,0.00,,,0.00,Wunderground v.1.15,2013-01-20 15:33:00,
2013-01-20 09:36:00,5.4,-1.4,30.34,WNW,303,4.0,4.0,73,0.00,,,0.00,Wunderground v.1.15,2013-01-20 15:36:00,
2013-01-20 09:38:00,5.6,-1.2,30.34,WSW,240,4.0,11.0,73,0.00,,,0.00,Wunderground v.1.15,2013-01-20 15:38:00,
2013-01-20 09:40:00,5.9,-0.6,30.34,North,355,3.0,11.0,74,0.00,,,0.00,Wunderground v.1.15,2013-01-20 15:40:00,
2013-01-20 09:41:00,6.1,-0.1,30.34,North,350,3.0,11.0,75,0.00,,,0.00,Wunderground v.1.15,2013-01-20 15:41:00,
2013-01-20 09:44:00,6.6,0.9,30.34,WNW,300,2.0,11.0,77,0.00,,,0.00,Wunderground v.1.15,2013-01-20 15:44:00,
2013-01-20 09:46:00,6.3,-1.1,30.34,North,355,3.0,11.0,71,0.00,,,0.00,Wunderground v.1.15,2013-01-20 15:46:00,
2013-01-20 09:47:00,6.2,-2.0,30.34,West,271,1.0,-999.0,70,-99.99,,,0.00,weatherlink.com 1.10,2013-01-20 15:47:00,
2013-01-20 09:52:00,6.0,-1.7,30.35,West,281,4.0,11.0,70,0.00,,,0.00,Wunderground v.1.15,2013-01-20 15:52:00,
2013-01-20 09:53:00,5.9,-1.8,30.35,WNW,297,4.0,11.0,70,0.00,,,0.00,Wunderground v.1.15,2013-01-20 15:53:00,
2013-01-20 09:57:00,6.0,-1.7,30.35,WNW,290,4.0,4.0,70,0.00,,,0.00,Wunderground v.1.15,2013-01-20 15:57:00,
2013-01-20 09:58:00,6.2,-1.2,30.35,WNW,296,4.0,4.0,71,0.00,,,0.00,Wunderground v.1.15,2013-01-20 15:58:00,
2013-01-20 09:59:00,6.3,-1.1,30.35,WNW,299,4.0,4.0,71,0.00,,,0.00,Wunderground v.1.15,2013-01-20 15:59:00,
2013-01-20 10:02:00,6.7,-1.0,30.35,West,279,3.0,6.0,70,0.00,,,0.00,Wunderground v.1.15,2013-01-20 16:02:00,
2013-01-20 10:04:00,6.6,-1.7,30.35,NNW,344,4.0,6.0,68,0.00,,,0.00,Wunderground v.1.15,2013-01-20 16:04:00,
2013-01-20 10:07:00,6.8,-0.9,30.35,NNW,339,3.0,4.0,70,0.00,,,0.00,Wunderground v.1.15,2013-01-20 16:07:00,
2013-01-20 10:10:00,6.9,-1.1,30.36,NW,325,4.0,6.0,69,0.00,,,0.00,Wunderground v.1.15,2013-01-20 16:10:00,
2013-01-20 10:14:00,6.9,-1.4,30.36,North,5,4.0,6.0,68,0.00,,,0.00,Wunderground v.1.15,2013-01-20 16:14:00,
2013-01-20 10:15:00,6.9,-1.8,30.36,North,349,4.0,6.0,67,0.00,,,0.00,Wunderground v.1.15,2013-01-20 16:15:00,
2013-01-20 10:16:00,6.9,-1.4,30.36,West,272,4.0,5.0,68,0.00,,,0.00,Wunderground v.1.15,2013-01-20 16:16:00,
2013-01-20 10:17:00,6.9,-2.0,30.36,WSW,254,5.0,-999.0,67,-99.99,,,0.00,weatherlink.com 1.10,2013-01-20 16:17:00,
2013-01-20 10:19:00,6.7,-2.3,30.36,West,279,5.0,9.0,66,0.00,,,0.00,Wunderground v.1.15,2013-01-20 16:19:00,
2013-01-20 10:24:00,7.1,-1.2,30.36,NNW,336,4.0,9.0,68,0.00,,,0.00,Wunderground v.1.15,2013-01-20 16:24:00,
2013-01-20 10:25:00,7.2,-1.2,30.36,NNW,329,4.0,9.0,68,0.00,,,0.00,Wunderground v.1.15,2013-01-20 16:25:00,
2013-01-20 10:30:00,7.3,-1.7,30.36,West,281,4.0,13.0,66,0.00,,,0.00,Wunderground v.1.15,2013-01-20 16:30:00,
2013-01-20 10:32:00,7.3,-2.0,30.36,West,281,2.0,-999.0,66,-99.99,,,0.00,weatherlink.com 1.10,2013-01-20 16:32:00,
2013-01-20 10:33:00,7.4,-0.3,30.36,ENE,57,3.0,13.0,70,0.00,,,0.00,Wunderground v.1.15,2013-01-20 16:33:00,
2013-01-20 10:36:00,7.5,-1.5,30.36,NW,320,4.0,4.0,66,0.00,,,0.00,Wunderground v.1.15,2013-01-20 16:36:00,
2013-01-20 10:38:00,7.3,-2.0,30.36,WNW,290,4.0,8.0,65,0.00,,,0.00,Wunderground v.1.15,2013-01-20 16:38:00,
2013-01-20 10:39:00,7.2,-2.1,30.36,WNW,285,4.0,9.0,65,0.00,,,0.00,Wunderground v.1.15,2013-01-20 16:39:00,
2013-01-20 10:44:00,6.9,-2.4,30.36,West,266,4.0,13.0,65,0.00,,,0.00,Wunderground v.1.15,2013-01-20 16:44:00,
2013-01-20 10:45:00,6.9,-2.4,30.36,WNW,286,4.0,13.0,65,0.00,,,0.00,Wunderground v.1.15,2013-01-20 16:45:00,
2013-01-20 10:46:00,6.9,-2.1,30.36,SW,225,4.0,13.0,66,0.00,,,0.00,Wunderground v.1.15,2013-01-20 16:46:00,
2013-01-20 10:50:00,7.2,-1.2,30.36,NNW,342,4.0,13.0,68,0.00,,,0.00,Wunderground v.1.15,2013-01-20 16:50:00,
2013-01-20 10:51:00,7.4,-1.3,30.36,North,350,4.0,13.0,67,0.00,,,0.00,Wunderground v.1.15,2013-01-20 16:51:00,
2013-01-20 10:54:00,7.8,-0.6,30.36,West,277,3.0,13.0,68,0.00,,,0.00,Wunderground v.1.15,2013-01-20 16:54:00,
2013-01-20 10:55:00,7.9,-1.4,30.36,WNW,286,3.0,13.0,65,0.00,,,0.00,Wunderground v.1.15,2013-01-20 16:55:00,
2013-01-20 10:57:00,7.8,-1.9,30.37,West,280,3.0,3.0,64,0.00,,,0.00,Wunderground v.1.15,2013-01-20 16:57:00,
2013-01-20 11:00:00,7.6,-1.7,30.37,WSW,254,3.0,3.0,65,0.00,,,0.00,Wunderground v.1.15,2013-01-20 17:00:00,
2013-01-20 11:01:00,7.5,-1.8,30.36,NNW,327,3.0,6.0,65,0.00,,,0.00,Wunderground v.1.15,2013-01-20 17:01:00,
2013-01-20 11:02:00,7.6,-2.0,30.36,West,279,3.0,-999.0,66,-99.99,,,0.00,weatherlink.com 1.10,2013-01-20 17:02:00,
2013-01-20 11:08:00,7.4,-2.2,30.37,West,264,4.0,9.0,64,0.00,,,0.00,Wunderground v.1.15,2013-01-20 17:08:00,
2013-01-20 11:09:00,7.3,-2.3,30.36,West,264,5.0,9.0,64,0.00,,,0.00,Wunderground v.1.15,2013-01-20 17:09:00,
2013-01-20 11:10:00,7.1,-2.5,30.36,WNW,294,5.0,9.0,64,0.00,,,0.00,Wunderground v.1.15,2013-01-20 17:10:00,
2013-01-20 11:11:00,7.0,-2.6,30.36,West,276,5.0,9.0,64,0.00,,,0.00,Wunderground v.1.15,2013-01-20 17:11:00,
2013-01-20 11:14:00,7.2,-1.5,30.36,WNW,288,5.0,9.0,67,0.00,,,0.00,Wunderground v.1.15,2013-01-20 17:14:00,
2013-01-20 11:16:00,7.4,-1.6,30.36,WNW,284,6.0,6.0,66,0.00,,,0.00,Wunderground v.1.15,2013-01-20 17:16:00,
2013-01-20 11:19:00,7.1,-2.2,30.36,WNW,294,6.0,9.0,65,0.00,,,0.00,Wunderground v.1.15,2013-01-20 17:19:00,
2013-01-20 11:21:00,6.8,-2.5,30.36,WSW,254,6.0,12.0,65,0.00,,,0.00,Wunderground v.1.15,2013-01-20 17:21:00,
2013-01-20 11:22:00,6.7,-2.9,30.36,WNW,296,7.0,12.0,64,0.00,,,0.00,Wunderground v.1.15,2013-01-20 17:22:00,
2013-01-20 11:24:00,6.9,-1.4,30.35,WNW,300,7.0,12.0,68,0.00,,,0.00,Wunderground v.1.15,2013-01-20 17:24:00,
2013-01-20 11:25:00,7.0,-1.7,30.36,NW,319,6.0,12.0,67,0.00,,,0.00,Wunderground v.1.15,2013-01-20 17:25:00,
2013-01-20 11:29:00,7.1,-1.9,30.36,NNW,343,6.0,11.0,66,0.00,,,0.00,Wunderground v.1.15,2013-01-20 17:29:00,
2013-01-20 11:31:00,7.3,-1.4,30.35,NNW,341,5.0,11.0,67,0.00,,,0.00,Wunderground v.1.15,2013-01-20 17:31:00,
2013-01-20 11:34:00,7.5,-1.5,30.35,WNW,284,4.0,11.0,66,0.00,,,0.00,Wunderground v.1.15,2013-01-20 17:34:00,
2013-01-20 11:37:00,7.7,-1.6,30.35,West,259,5.0,11.0,65,0.00,,,0.00,Wunderground v.1.15,2013-01-20 17:37:00,
2013-01-20 11:42:00,8.2,-0.8,30.36,WNW,282,5.0,11.0,66,0.00,,,0.00,Wunderground v.1.15,2013-01-20 17:42:00,
2013-01-20 11:43:00,8.1,-1.6,30.35,West,278,5.0,11.0,64,0.00,,,0.00,Wunderground v.1.15,2013-01-20 17:43:00,
2013-01-20 11:44:00,8.1,-1.6,30.35,West,270,5.0,11.0,64,0.00,,,0.00,Wunderground v.1.15,2013-01-20 17:44:00,
2013-01-20 11:48:00,8.4,-2.0,30.35,WSW,257,8.0,-999.0,63,-99.99,,,0.00,weatherlink.com 1.10,2013-01-20 17:48:00,
2013-01-20 11:49:00,8.5,-1.5,30.35,WSW,255,6.0,11.0,63,0.00,,,0.00,Wunderground v.1.15,2013-01-20 17:49:00,
2013-01-20 11:50:00,8.7,-1.3,30.35,WSW,248,6.0,11.0,63,0.00,,,0.00,Wunderground v.1.15,2013-01-20 17:50:00,
2013-01-20 11:51:00,8.8,-1.2,30.35,West,261,6.0,11.0,63,0.00,,,0.00,Wunderground v.1.15,2013-01-20 17:51:00,
2013-01-20 11:54:00,9.0,-1.4,30.35,West,259,6.0,11.0,62,0.00,,,0.00,Wunderground v.1.15,2013-01-20 17:54:00,
2013-01-20 11:55:00,9.1,-1.0,30.35,WSW,240,5.0,11.0,63,0.00,,,0.00,Wunderground v.1.15,2013-01-20 17:55:00,
2013-01-20 11:57:00,9.1,-1.3,30.34,WSW,258,5.0,5.0,62,0.00,,,0.00,Wunderground v.1.15,2013-01-20 17:57:00,
2013-01-20 12:01:00,9.9,-0.2,30.34,NW,312,4.0,5.0,63,0.00,,,0.00,Wunderground v.1.15,2013-01-20 18:01:00,
2013-01-20 12:02:00,10.0,-0.1,30.34,West,273,4.0,5.0,63,0.00,,,0.00,Wunderground v.1.15,2013-01-20 18:02:00,
2013-01-20 12:03:00,10.0,-1.0,30.34,NW,306,2.0,-999.0,62,-99.99,,,0.00,weatherlink.com 1.10,2013-01-20 18:03:00,
2013-01-20 12:05:00,9.9,-1.2,30.34,West,262,4.0,5.0,60,0.00,,,0.00,Wunderground v.1.15,2013-01-20 18:05:00,
2013-01-20 12:09:00,9.4,-2.4,30.34,WSW,242,5.0,9.0,58,0.00,,,0.00,Wunderground v.1.15,2013-01-20 18:09:00,
2013-01-20 12:10:00,9.2,-2.6,30.34,WSW,246,5.0,9.0,58,0.00,,,0.00,Wunderground v.1.15,2013-01-20 18:10:00,
2013-01-20 12:12:00,9.0,-2.8,30.34,WNW,290,6.0,14.0,58,0.00,,,0.00,Wunderground v.1.15,2013-01-20 18:12:00,
2013-01-20 12:13:00,9.0,-2.1,30.34,WNW,284,6.0,14.0,60,0.00,,,0.00,Wunderground v.1.15,2013-01-20 18:13:00,
2013-01-20 12:16:00,9.4,-1.4,30.34,NW,305,6.0,6.0,61,0.00,,,0.00,Wunderground v.1.15,2013-01-20 18:16:00,
2013-01-20 12:18:00,9.5,-1.6,30.34,West,261,6.0,9.0,60,0.00,,,0.00,Wunderground v.1.15,2013-01-20 18:18:00,
2013-01-20 12:19:00,9.6,-2.0,30.34,WNW,294,3.0,-999.0,61,-99.99,,,0.00,weatherlink.com 1.10,2013-01-20 18:19:00,
2013-01-20 12:22:00,9.8,-1.0,30.33,NW,306,5.0,9.0,61,0.00,,,0.00,Wunderground v.1.15,2013-01-20 18:22:00,
2013-01-20 12:24:00,9.8,-1.3,30.33,North,5,5.0,9.0,60,0.00,,,0.00,Wunderground v.1.15,2013-01-20 18:24:00,
2013-01-20 12:25:00,9.8,-1.0,30.33,North,360,5.0,9.0,61,0.00,,,0.00,Wunderground v.1.15,2013-01-20 18:25:00,
2013-01-20 12:29:00,9.9,-0.9,30.33,NE,56,5.0,14.0,61,0.00,,,0.00,Wunderground v.1.15,2013-01-20 18:29:00,
2013-01-20 12:30:00,10.1,-0.3,30.33,West,273,4.0,14.0,62,0.00,,,0.00,Wunderground v.1.15,2013-01-20 18:30:00,
2013-01-20 12:33:00,10.5,-1.0,30.33,West,272,2.0,-999.0,61,-99.99,,,0.00,weatherlink.com 1.10,2013-01-20 18:33:00,
2013-01-20 12:36:00,10.9,0.1,30.33,WNW,293,3.0,14.0,61,0.00,,,0.00,Wunderground v.1.15,2013-01-20 18:36:00,
2013-01-20 12:37:00,10.9,-0.6,30.33,WNW,303,4.0,14.0,59,0.00,,,0.00,Wunderground v.1.15,2013-01-20 18:37:00,
2013-01-20 12:39:00,10.5,-1.8,30.33,West,260,4.0,14.0,57,0.00,,,0.00,Wunderground v.1.15,2013-01-20 18:39:00,
2013-01-20 12:41:00,10.7,-0.1,30.33,WSW,254,4.0,14.0,61,0.00,,,0.00,Wunderground v.1.15,2013-01-20 18:41:00,
2013-01-20 12:42:00,10.8,0.0,30.33,WSW,258,4.0,14.0,61,0.00,,,0.00,Wunderground v.1.15,2013-01-20 18:42:00,
2013-01-20 12:48:00,10.9,-1.0,30.33,West,277,5.0,-999.0,59,-99.99,,,0.00,weatherlink.com 1.10,2013-01-20 18:48:00,
2013-01-20 12:49:00,11.1,-0.1,30.33,SSW,200,4.0,14.0,60,0.00,,,0.00,Wunderground v.1.15,2013-01-20 18:49:00,
2013-01-20 12:50:00,11.3,0.1,30.33,NW,326,4.0,14.0,60,0.00,,,0.00,Wunderground v.1.15,2013-01-20 18:50:00,
2013-01-20 12:51:00,11.4,-0.2,30.33,West,277,4.0,14.0,59,0.00,,,0.00,Wunderground v.1.15,2013-01-20 18:51:00,
2013-01-20 12:54:00,11.7,0.1,30.33,NNW,334,4.0,14.0,59,0.00,,,0.00,Wunderground v.1.15,2013-01-20 18:54:00,
2013-01-20 12:57:00,11.7,-1.0,30.33,West,264,4.0,4.0,56,0.00,,,0.00,Wunderground v.1.15,2013-01-20 18:57:00,
2013-01-20 12:59:00,12.0,0.4,30.33,NW,307,4.0,4.0,59,0.00,,,0.00,Wunderground v.1.15,2013-01-20 18:59:00,
2013-01-20 13:00:00,12.1,0.1,30.33,NW,321,4.0,4.0,58,0.00,,,0.00,Wunderground v.1.15,2013-01-20 19:00:00,
2013-01-20 13:02:00,12.1,-0.6,30.33,North,350,4.0,8.0,56,0.00,,,0.00,Wunderground v.1.15,2013-01-20 19:02:00,
2013-01-20 13:06:00,12.2,-0.5,30.33,WNW,284,4.0,14.0,56,0.00,,,0.00,Wunderground v.1.15,2013-01-20 19:06:00,
2013-01-20 13:07:00,12.0,-1.1,30.33,West,261,5.0,14.0,55,0.00,,,0.00,Wunderground v.1.15,2013-01-20 19:07:00,
2013-01-20 13:08:00,11.8,-1.7,30.33,WNW,287,5.0,14.0,54,0.00,,,0.00,Wunderground v.1.15,2013-01-20 19:08:00,
2013-01-20 13:12:00,11.7,-0.3,30.32,NW,304,5.0,14.0,58,0.00,,,0.00,Wunderground v.1.15,2013-01-20 19:12:00,
2013-01-20 13:13:00,11.7,-1.0,30.32,WSW,252,5.0,14.0,56,0.00,,,0.00,Wunderground v.1.15,2013-01-20 19:13:00,
2013-01-20 13:14:00,11.7,-1.0,30.32,North,351,5.0,14.0,56,0.00,,,0.00,Wunderground v.1.15,2013-01-20 19:14:00,
2013-01-20 13:15:00,11.9,0.3,30.32,NNE,12,5.0,14.0,59,0.00,,,0.00,Wunderground v.1.15,2013-01-20 19:15:00,
2013-01-20 13:17:00,12.2,-0.1,30.32,NNW,346,5.0,7.0,57,0.00,,,0.00,Wunderground v.1.15,2013-01-20 19:17:00,
2013-01-20 13:18:00,12.3,0.0,30.32,North,355,6.0,-999.0,57,-99.99,,,0.00,weatherlink.com 1.10,2013-01-20 19:18:00,
2013-01-20 13:20:00,12.4,-0.7,30.32,North,5,5.0,7.0,55,0.00,,,0.00,Wunderground v.1.15,2013-01-20 19:20:00,
2013-01-20 13:21:00,12.5,-1.0,30.32,NW,308,5.0,7.0,54,0.00,,,0.00,Wunderground v.1.15,2013-01-20 19:21:00,
2013-01-20 13:23:00,12.6,-0.5,30.33,North,351,4.0,7.0,55,0.00,,,0.00,Wunderground v.1.15,2013-01-20 19:23:00,
2013-01-20 13:26:00,12.7,-0.8,30.33,West,274,4.0,6.0,54,0.00,,,0.00,Wunderground v.1.15,2013-01-20 19:26:00,
2013-01-20 13:28:00,12.6,-1.7,30.33,West,281,4.0,13.0,52,0.00,,,0.00,Wunderground v.1.15,2013-01-20 19:28:00,
2013-01-20 13:31:00,12.5,-1.4,30.33,NNW,327,4.0,13.0,53,0.00,,,0.00,Wunderground v.1.15,2013-01-20 19:31:00,
2013-01-20 13:32:00,12.7,-0.8,30.33,SW,215,4.0,13.0,54,0.00,,,0.00,Wunderground v.1.15,2013-01-20 19:32:00,
2013-01-20 13:33:00,12.7,-0.8,30.33,NW,309,4.0,13.0,54,0.00,,,0.00,Wunderground v.1.15,2013-01-20 19:33:00,
2013-01-20 13:34:00,12.8,-1.0,30.32,North,355,5.0,-999.0,54,-99.99,,,0.00,weatherlink.com 1.10,2013-01-20 19:34:00,
2013-01-20 13:37:00,12.6,-2.1,30.33,West,277,4.0,13.0,51,0.00,,,0.00,Wunderground v.1.15,2013-01-20 19:37:00,
2013-01-20 13:39:00,12.3,-1.6,30.32,West,272,5.0,13.0,53,0.00,,,0.00,Wunderground v.1.15,2013-01-20 19:39:00,
2013-01-20 13:40:00,12.4,-0.3,30.32,WSW,252,4.0,13.0,56,0.00,,,0.00,Wunderground v.1.15,2013-01-20 19:40:00,
2013-01-20 13:44:00,12.8,-0.7,30.32,WNW,293,4.0,13.0,54,0.00,,,0.00,Wunderground v.1.15,2013-01-20 19:44:00,
2013-01-20 13:45:00,12.6,-2.1,30.32,WNW,297,4.0,13.0,51,0.00,,,0.00,Wunderground v.1.15,2013-01-20 19:45:00,
2013-01-20 13:46:00,12.5,-2.6,30.32,West,260,5.0,5.0,50,0.00,,,0.00,Wunderground v.1.15,2013-01-20 19:46:00,
2013-01-20 13:50:00,12.1,-3.4,30.32,WNW,284,5.0,13.0,49,0.00,,,0.00,Wunderground v.1.15,2013-01-20 19:50:00,
2013-01-20 13:51:00,12.0,-3.1,30.32,NW,310,5.0,13.0,50,0.00,,,0.00,Wunderground v.1.15,2013-01-20 19:51:00,
2013-01-20 13:53:00,11.9,-3.2,30.32,WNW,289,6.0,13.0,50,0.00,,,0.00,Wunderground v.1.15,2013-01-20 19:53:00,
2013-01-20 13:57:00,12.6,-1.3,30.32,North,349,5.0,8.0,53,0.00,,,0.00,Wunderground v.1.15,2013-01-20 19:57:00,
2013-01-20 13:58:00,12.6,-1.3,30.32,North,5,5.0,8.0,53,0.00,,,0.00,Wunderground v.1.15,2013-01-20 19:58:00,
2013-01-20 14:02:00,13.2,0.0,30.32,North,360,4.0,8.0,55,0.00,,,0.00,Wunderground v.1.15,2013-01-20 20:02:00,
2013-01-20 14:05:00,13.5,-1.0,30.32,West,271,4.0,-999.0,52,-99.99,,,0.00,weatherlink.com 1.10,2013-01-20 20:05:00,
2013-01-20 14:06:00,13.4,-1.8,30.32,NW,325,4.0,8.0,50,0.00,,,0.00,Wunderground v.1.15,2013-01-20 20:06:00,
2013-01-20 14:09:00,13.0,-2.6,30.32,NW,308,4.0,8.0,49,0.00,,,0.00,Wunderground v.1.15,2013-01-20 20:09:00,
2013-01-20 14:11:00,12.8,-2.8,30.32,WNW,302,5.0,8.0,49,0.00,,,0.00,Wunderground v.1.15,2013-01-20 20:11:00,
2013-01-20 14:15:00,12.4,-3.2,30.32,WNW,289,6.0,8.0,49,0.00,,,0.00,Wunderground v.1.15,2013-01-20 20:15:00,
2013-01-20 14:18:00,12.8,-1.9,30.32,West,267,5.0,6.0,51,0.00,,,0.00,Wunderground v.1.15,2013-01-20 20:18:00,
2013-01-20 14:20:00,13.2,-1.6,30.32,WNW,287,5.0,6.0,51,0.00,,,0.00,Wunderground v.1.15,2013-01-20 20:20:00,
2013-01-20 14:24:00,13.2,-2.0,30.32,West,265,4.0,6.0,50,0.00,,,0.00,Wunderground v.1.15,2013-01-20 20:24:00,
2013-01-20 14:26:00,12.9,-3.1,30.32,West,273,5.0,7.0,48,0.00,,,0.00,Wunderground v.1.15,2013-01-20 20:26:00,
2013-01-20 14:29:00,12.6,-3.0,30.32,West,276,5.0,14.0,49,0.00,,,0.00,Wunderground v.1.15,2013-01-20 20:29:00,
2013-01-20 14:30:00,12.6,-3.0,30.32,WNW,283,6.0,14.0,49,0.00,,,0.00,Wunderground v.1.15,2013-01-20 20:30:00,
2013-01-20 14:33:00,12.5,-3.1,30.32,West,275,6.0,14.0,49,0.00,,,0.00,Wunderground v.1.15,2013-01-20 20:33:00,
2013-01-20 14:36:00,12.3,-3.0,30.32,WNW,290,6.0,-999.0,50,-99.99,,,0.00,weatherlink.com 1.10,2013-01-20 20:36:00,
2013-01-20 14:37:00,12.3,-3.3,30.32,WNW,291,5.0,14.0,49,0.00,,,0.00,Wunderground v.1.15,2013-01-20 20:37:00,
2013-01-20 14:43:00,12.2,-2.9,30.32,WNW,298,5.0,14.0,50,0.00,,,0.00,Wunderground v.1.15,2013-01-20 20:43:00,
2013-01-20 14:44:00,12.1,-3.4,30.32,WNW,283,5.0,14.0,49,0.00,,,0.00,Wunderground v.1.15,2013-01-20 20:44:00,
2013-01-20 14:48:00,11.9,-3.2,30.32,WSW,247,6.0,14.0,50,0.00,,,0.00,Wunderground v.1.15,2013-01-20 20:48:00,
2013-01-20 14:49:00,12.0,-4.0,30.32,NNW,330,5.0,-999.0,50,-99.99,,,0.00,weatherlink.com 1.10,2013-01-20 20:49:00,
2013-01-20 14:50:00,12.1,-3.0,30.32,WNW,300,6.0,14.0,50,0.00,,,0.00,Wunderground v.1.15,2013-01-20 20:50:00,
2013-01-20 14:54:00,12.8,-1.1,30.32,West,267,4.0,14.0,53,0.00,,,0.00,Wunderground v.1.15,2013-01-20 20:54:00,
2013-01-20 14:55:00,13.0,-0.9,30.31,WNW,300,4.0,14.0,53,0.00,,,0.00,Wunderground v.1.15,2013-01-20 20:55:00,
2013-01-20 14:57:00,13.2,-0.8,30.32,WNW,288,4.0,4.0,53,0.00,,,0.00,Wunderground v.1.15,2013-01-20 20:57:00,
2013-01-20 15:02:00,13.0,-3.0,30.32,West,267,4.0,11.0,48,0.00,,,0.00,Wunderground v.1.15,2013-01-20 21:02:00,
2013-01-20 15:03:00,12.8,-3.2,30.31,SW,223,4.0,11.0,48,0.00,,,0.00,Wunderground v.1.15,2013-01-20 21:03:00,
2013-01-20 15:07:00,12.8,-3.2,30.32,West,275,5.0,11.0,48,0.00,,,0.00,Wunderground v.1.15,2013-01-20 21:07:00,
2013-01-20 15:10:00,12.6,-3.9,30.32,West,267,6.0,13.0,47,0.00,,,0.00,Wunderground v.1.15,2013-01-20 21:10:00,
2013-01-20 15:11:00,12.5,-3.9,30.32,WSW,253,6.0,13.0,47,0.00,,,0.00,Wunderground v.1.15,2013-01-20 21:11:00,
2013-01-20 15:12:00,12.5,-3.5,30.32,West,277,6.0,13.0,48,0.00,,,0.00,Wunderground v.1.15,2013-01-20 21:12:00,
2013-01-20 15:17:00,12.8,-2.4,30.32,West,263,6.0,6.0,50,0.00,,,0.00,Wunderground v.1.15,2013-01-20 21:17:00,
2013-01-20 15:18:00,12.9,-2.7,30.32,WNW,292,6.0,7.0,49,0.00,,,0.00,Wunderground v.1.15,2013-01-20 21:18:00,
2013-01-20 15:19:00,13.0,-2.6,30.32,West,264,6.0,15.0,49,0.00,,,0.00,Wunderground v.1.15,2013-01-20 21:19:00,
2013-01-20 15:20:00,12.9,-3.1,30.32,WNW,296,5.0,15.0,48,0.00,,,0.00,Wunderground v.1.15,2013-01-20 21:20:00,
2013-01-20 15:24:00,13.2,-2.0,30.32,West,281,4.0,15.0,50,0.00,,,0.00,Wunderground v.1.15,2013-01-20 21:24:00,
2013-01-20 15:26:00,13.2,-2.9,30.32,NNW,344,5.0,5.0,48,0.00,,,0.00,Wunderground v.1.15,2013-01-20 21:26:00,
2013-01-20 15:28:00,13.3,-2.3,30.32,West,262,5.0,16.0,49,0.00,,,0.00,Wunderground v.1.15,2013-01-20 21:28:00,
2013-01-20 15:30:00,13.2,-2.4,30.31,WSW,258,5.0,16.0,49,0.00,,,0.00,Wunderground v.1.15,2013-01-20 21:30:00,
2013-01-20 15:32:00,13.3,-2.3,30.31,West,277,5.0,16.0,49,0.00,,,0.00,Wunderground v.1.15,2013-01-20 21:32:00,
2013-01-20 15:34:00,13.0,-3.0,30.31,WSW,253,9.0,-999.0,48,-99.99,,,0.00,weatherlink.com 1.10,2013-01-20 21:34:00,
2013-01-20 15:38:00,13.1,-2.5,30.31,West,275,6.0,16.0,49,0.00,,,0.00,Wunderground v.1.15,2013-01-20 21:38:00,
2013-01-20 15:39:00,13.2,-2.0,30.31,West,281,6.0,16.0,50,0.00,,,0.00,Wunderground v.1.15,2013-01-20 21:39:00,
2013-01-20 15:41:00,13.1,-2.5,30.31,WSW,254,6.0,16.0,49,0.00,,,0.00,Wunderground v.1.15,2013-01-20 21:41:00,
2013-01-20 15:43:00,12.9,-3.1,30.31,WNW,289,5.0,16.0,48,0.00,,,0.00,Wunderground v.1.15,2013-01-20 21:43:00,
2013-01-20 15:45:00,12.7,-3.8,30.31,West,269,5.0,16.0,47,0.00,,,0.00,Wunderground v.1.15,2013-01-20 21:45:00,
2013-01-20 15:48:00,12.8,-2.8,30.31,WNW,296,5.0,16.0,49,0.00,,,0.00,Wunderground v.1.15,2013-01-20 21:48:00,
2013-01-20 15:51:00,13.1,-2.1,30.30,NW,326,5.0,16.0,50,0.00,,,0.00,Wunderground v.1.15,2013-01-20 21:51:00,
2013-01-20 15:52:00,13.1,-2.1,30.30,West,271,4.0,16.0,50,0.00,,,0.00,Wunderground v.1.15,2013-01-20 21:52:00,
2013-01-20 15:54:00,13.0,-3.5,30.30,WNW,284,4.0,16.0,47,0.00,,,0.00,Wunderground v.1.15,2013-01-20 21:54:00,
2013-01-20 15:57:00,13.1,-2.9,30.30,WNW,294,4.0,6.0,48,0.00,,,0.00,Wunderground v.1.15,2013-01-20 21:57:00,
2013-01-20 15:58:00,13.0,-3.0,30.30,West,277,4.0,6.0,48,0.00,,,0.00,Wunderground v.1.15,2013-01-20 21:58:00,
2013-01-20 16:00:00,13.0,-2.6,30.30,WNW,284,4.0,6.0,49,0.00,,,0.00,Wunderground v.1.15,2013-01-20 22:00:00,
2013-01-20 16:02:00,13.0,-2.2,30.30,WSW,252,4.0,6.0,50,0.00,,,0.00,Wunderground v.1.15,2013-01-20 22:02:00,
2013-01-20 16:04:00,13.0,-2.2,30.30,West,277,4.0,6.0,50,0.00,,,0.00,Wunderground v.1.15,2013-01-20 22:04:00,
2013-01-20 16:07:00,13.1,-1.3,30.30,WNW,295,4.0,10.0,52,0.00,,,0.00,Wunderground v.1.15,2013-01-20 22:07:00,
2013-01-20 16:08:00,13.0,-2.2,30.30,NW,323,5.0,10.0,50,0.00,,,0.00,Wunderground v.1.15,2013-01-20 22:08:00,
2013-01-20 16:11:00,12.8,-1.5,30.30,WNW,282,5.0,10.0,52,0.00,,,0.00,Wunderground v.1.15,2013-01-20 22:11:00,
2013-01-20 16:13:00,12.8,-1.5,30.30,WNW,289,4.0,10.0,52,0.00,,,0.00,Wunderground v.1.15,2013-01-20 22:13:00,
2013-01-20 16:14:00,12.7,-2.5,30.30,WNW,282,4.0,10.0,50,0.00,,,0.00,Wunderground v.1.15,2013-01-20 22:14:00,
2013-01-20 16:18:00,12.7,-2.0,30.30,WNW,301,3.0,5.0,51,0.00,,,0.00,Wunderground v.1.15,2013-01-20 22:18:00,
2013-01-20 16:19:00,12.6,-2.1,30.30,West,275,3.0,5.0,51,0.00,,,0.00,Wunderground v.1.15,2013-01-20 22:19:00,
2013-01-20 16:21:00,12.6,-3.0,30.30,WNW,283,3.0,5.0,49,0.00,,,0.00,Wunderground v.1.15,2013-01-20 22:21:00,
2013-01-20 16:23:00,12.4,-3.2,30.30,SW,235,4.0,5.0,49,0.00,,,0.00,Wunderground v.1.15,2013-01-20 22:23:00,
2013-01-20 16:27:00,12.3,-2.4,30.30,WNW,302,4.0,15.0,51,0.00,,,0.00,Wunderground v.1.15,2013-01-20 22:27:00,
2013-01-20 16:28:00,12.2,-2.9,30.30,WNW,302,4.0,15.0,50,0.00,,,0.00,Wunderground v.1.15,2013-01-20 22:28:00,
2013-01-20 16:29:00,12.2,-2.9,30.30,WNW,292,4.0,15.0,50,0.00,,,0.00,Wunderground v.1.15,2013-01-20 22:29:00,
2013-01-20 16:31:00,12.0,-3.1,30.30,WNW,283,4.0,15.0,50,0.00,,,0.00,Wunderground v.1.15,2013-01-20 22:31:00,
2013-01-20 16:34:00,11.8,-3.7,30.30,WSW,254,4.0,15.0,49,0.00,,,0.00,Wunderground v.1.15,2013-01-20 22:34:00,
2013-01-20 16:35:00,11.7,-3.0,30.30,West,259,2.0,-999.0,51,-99.99,,,0.00,weatherlink.com 1.10,2013-01-20 22:35:00,
2013-01-20 16:37:00,11.7,-3.0,30.30,WNW,286,4.0,15.0,51,0.00,,,0.00,Wunderground v.1.15,2013-01-20 22:37:00,
2013-01-20 16:40:00,11.5,-4.0,30.30,West,277,5.0,15.0,49,0.00,,,0.00,Wunderground v.1.15,2013-01-20 22:40:00,
2013-01-20 16:42:00,11.4,-3.3,30.31,West,275,4.0,15.0,51,0.00,,,0.00,Wunderground v.1.15,2013-01-20 22:42:00,
2013-01-20 16:46:00,11.2,-3.4,30.31,West,281,4.0,15.0,51,0.00,,,0.00,Wunderground v.1.15,2013-01-20 22:46:00,
2013-01-20 16:47:00,11.1,-3.9,30.31,West,269,4.0,15.0,50,0.00,,,0.00,Wunderground v.1.15,2013-01-20 22:47:00,
2013-01-20 16:52:00,10.9,-2.9,30.31,North,5,4.0,15.0,53,0.00,,,0.00,Wunderground v.1.15,2013-01-20 22:52:00,
2013-01-20 16:53:00,10.8,-3.4,30.31,West,268,4.0,15.0,52,0.00,,,0.00,Wunderground v.1.15,2013-01-20 22:53:00,
2013-01-20 16:54:00,10.7,-3.9,30.31,West,260,4.0,15.0,51,0.00,,,0.00,Wunderground v.1.15,2013-01-20 22:54:00,
2013-01-20 16:58:00,10.6,-2.0,30.31,NNW,329,3.0,4.0,56,0.00,,,0.00,Wunderground v.1.15,2013-01-20 22:58:00,
2013-01-20 16:59:00,10.5,-2.1,30.31,NNW,340,3.0,4.0,56,0.00,,,0.00,Wunderground v.1.15,2013-01-20 22:59:00,
2013-01-20 17:00:00,10.5,-2.5,30.31,West,277,3.0,7.0,55,0.00,,,0.00,Wunderground v.1.15,2013-01-20 23:00:00,
2013-01-20 17:04:00,10.3,-2.7,30.31,West,275,3.0,7.0,55,0.00,,,0.00,Wunderground v.1.15,2013-01-20 23:04:00,
2013-01-20 17:06:00,10.3,-3.0,30.31,WNW,302,0.0,-999.0,56,-99.99,,,0.00,weatherlink.com 1.10,2013-01-20 23:06:00,
2013-01-20 17:09:00,10.2,-2.4,30.31,NNW,342,2.0,2.0,56,0.00,,,0.00,Wunderground v.1.15,2013-01-20 23:09:00,
2013-01-20 17:11:00,10.1,-2.9,30.31,WNW,288,2.0,6.0,55,0.00,,,0.00,Wunderground v.1.15,2013-01-20 23:11:00,
2013-01-20 17:12:00,10.0,-3.0,30.31,West,275,2.0,6.0,55,0.00,,,0.00,Wunderground v.1.15,2013-01-20 23:12:00,
2013-01-20 17:15:00,10.0,-3.0,30.31,NNW,339,2.0,6.0,55,0.00,,,0.00,Wunderground v.1.15,2013-01-20 23:15:00,
2013-01-20 17:17:00,10.1,0.0,30.31,NNW,338,2.0,2.0,63,0.00,,,0.00,Wunderground v.1.15,2013-01-20 23:17:00,
2013-01-20 17:20:00,10.1,-1.0,30.31,WNW,290,2.0,-999.0,61,-99.99,,,0.00,weatherlink.com 1.10,2013-01-20 23:20:00,
2013-01-20 17:23:00,10.1,-1.0,30.31,NNW,339,2.0,4.0,60,0.00,,,0.00,Wunderground v.1.15,2013-01-20 23:23:00,
2013-01-20 17:27:00,10.0,-0.1,30.32,West,269,2.0,12.0,63,0.00,,,0.00,Wunderground v.1.15,2013-01-20 23:27:00,
2013-01-20 17:28:00,10.0,-0.1,30.32,West,269,2.0,12.0,63,0.00,,,0.00,Wunderground v.1.15,2013-01-20 23:28:00,
2013-01-20 17:30:00,9.9,-0.2,30.31,WNW,293,2.0,12.0,63,0.00,,,0.00,Wunderground v.1.15,2013-01-20 23:30:00,
2013-01-20 17:33:00,9.7,-2.1,30.31,WNW,286,2.0,12.0,58,0.00,,,0.00,Wunderground v.1.15,2013-01-20 23:33:00,
2013-01-20 17:34:00,9.6,-2.2,30.31,NNW,328,2.0,12.0,58,0.00,,,0.00,Wunderground v.1.15,2013-01-20 23:34:00,
2013-01-20 17:36:00,9.6,-1.2,30.31,North,350,2.0,2.0,61,0.00,,,0.00,Wunderground v.1.15,2013-01-20 23:36:00,
2013-01-20 17:37:00,9.6,-0.1,30.31,North,350,2.0,12.0,64,0.00,,,0.00,Wunderground v.1.15,2013-01-20 23:37:00,
2013-01-20 17:40:00,9.6,0.5,30.31,WNW,288,2.0,12.0,66,0.00,,,0.00,Wunderground v.1.15,2013-01-20 23:40:00,
2013-01-20 17:42:00,9.6,1.2,30.31,WNW,300,2.0,12.0,68,0.00,,,0.00,Wunderground v.1.15,2013-01-20 23:42:00,
2013-01-20 17:46:00,9.5,-1.3,30.31,WNW,288,1.0,12.0,61,0.00,,,0.00,Wunderground v.1.15,2013-01-20 23:46:00,
2013-01-20 17:47:00,9.4,-1.7,30.31,WNW,300,1.0,12.0,60,0.00,,,0.00,Wunderground v.1.15,2013-01-20 23:47:00,
2013-01-20 17:50:00,9.2,-2.0,30.31,NNW,346,4.0,-999.0,61,-99.99,,,0.00,weatherlink.com 1.10,2013-01-20 23:50:00,
2013-01-20 17:52:00,9.1,-1.6,30.31,West,277,1.0,12.0,61,0.00,,,0.00,Wunderground v.1.15,2013-01-20 23:52:00,
2013-01-20 17:57:00,9.0,-2.8,30.31,West,278,2.0,5.0,58,0.00,,,0.00,Wunderground v.1.15,2013-01-20 23:57:00,
2013-01-20 17:59:00,8.9,-2.2,30.31,WSW,252,2.0,5.0,60,0.00,,,0.00,Wunderground v.1.15,2013-01-20 23:59:00,
2013-01-20 18:03:00,8.9,-1.1,30.31,West,271,2.0,5.0,63,0.00,,,0.00,Wunderground v.1.15,2013-01-21 00:03:00,
2013-01-20 18:04:00,9.0,-0.7,30.31,West,272,2.0,5.0,64,0.00,,,0.00,Wunderground v.1.15,2013-01-21 00:04:00,
2013-01-20 18:08:00,9.0,-1.4,30.31,NW,318,1.0,3.0,62,0.00,,,0.00,Wunderground v.1.15,2013-01-21 00:08:00,
2013-01-20 18:10:00,8.9,-2.2,30.31,NW,313,1.0,3.0,60,0.00,,,0.00,Wunderground v.1.15,2013-01-21 00:10:00,
2013-01-20 18:11:00,8.9,-1.1,30.31,NW,313,1.0,3.0,63,0.00,,,0.00,Wunderground v.1.15,2013-01-21 00:11:00,
2013-01-20 18:15:00,9.0,-0.4,30.31,NW,311,1.0,3.0,65,0.00,,,0.00,Wunderground v.1.15,2013-01-21 00:15:00,
2013-01-20 18:18:00,9.1,1.0,30.31,NW,316,1.0,1.0,69,0.00,,,0.00,Wunderground v.1.15,2013-01-21 00:18:00,
2013-01-20 18:19:00,9.2,1.7,30.31,NW,316,1.0,1.0,71,0.00,,,0.00,Wunderground v.1.15,2013-01-21 00:19:00,
2013-01-20 18:22:00,9.2,1.4,30.31,NW,317,1.0,2.0,70,0.00,,,0.00,Wunderground v.1.15,2013-01-21 00:22:00,
2013-01-20 18:23:00,9.2,1.1,30.31,NW,317,1.0,2.0,69,0.00,,,0.00,Wunderground v.1.15,2013-01-21 00:23:00,
2013-01-20 18:25:00,9.2,0.8,30.31,NW,317,1.0,2.0,68,0.00,,,0.00,Wunderground v.1.15,2013-01-21 00:25:00,
2013-01-20 18:28:00,9.4,1.6,30.31,NW,317,1.0,5.0,70,0.00,,,0.00,Wunderground v.1.15,2013-01-21 00:28:00,
2013-01-20 18:29:00,9.2,1.1,30.31,NW,317,1.0,5.0,69,0.00,,,0.00,Wunderground v.1.15,2013-01-21 00:29:00,
2013-01-20 18:32:00,9.6,2.7,30.31,NW,317,0.0,5.0,73,0.00,,,0.00,Wunderground v.1.15,2013-01-21 00:32:00,
2013-01-20 18:34:00,9.7,3.7,30.31,NW,318,1.0,5.0,76,0.00,,,0.00,Wunderground v.1.15,2013-01-21 00:34:00,
2013-01-20 18:38:00,9.5,2.3,30.31,NW,321,1.0,5.0,72,0.00,,,0.00,Wunderground v.1.15,2013-01-21 00:38:00,
2013-01-20 18:39:00,9.6,2.1,30.31,NW,321,1.0,5.0,71,0.00,,,0.00,Wunderground v.1.15,2013-01-21 00:39:00,
2013-01-20 18:41:00,9.4,1.6,30.31,NW,325,1.0,5.0,70,0.00,,,0.00,Wunderground v.1.15,2013-01-21 00:41:00,
2013-01-20 18:42:00,9.4,1.6,30.31,NW,307,1.0,5.0,70,0.00,,,0.00,Wunderground v.1.15,2013-01-21 00:42:00,
2013-01-20 18:48:00,8.8,-0.6,30.32,NW,316,1.0,5.0,65,0.00,,,0.00,Wunderground v.1.15,2013-01-21 00:48:00,
2013-01-20 18:53:00,8.9,2.0,30.31,West,281,1.0,5.0,73,0.00,,,0.00,Wunderground v.1.15,2013-01-21 00:53:00,
2013-01-20 18:54:00,9.1,3.4,30.31,West,281,1.0,5.0,77,0.00,,,0.00,Wunderground v.1.15,2013-01-21 00:54:00,
2013-01-20 18:55:00,9.3,4.1,30.31,WNW,288,1.0,5.0,79,0.00,,,0.00,Wunderground v.1.15,2013-01-21 00:55:00,
2013-01-20 18:59:00,9.1,2.2,30.31,NW,319,1.0,5.0,73,0.00,,,0.00,Wunderground v.1.15,2013-01-21 00:59:00,
2013-01-20 19:02:00,8.8,0.4,30.31,NW,317,1.0,5.0,68,0.00,,,0.00,Wunderground v.1.15,2013-01-21 01:02:00,
2013-01-20 19:06:00,8.3,-1.0,30.31,NNW,329,2.0,-999.0,66,-99.99,,,0.00,weatherlink.com 1.10,2013-01-21 01:06:00,
2013-01-20 19:07:00,8.2,-1.5,30.31,NNW,329,1.0,5.0,64,0.00,,,0.00,Wunderground v.1.15,2013-01-21 01:07:00,
2013-01-20 19:08:00,8.2,-1.2,30.31,NNW,329,1.0,5.0,65,0.00,,,0.00,Wunderground v.1.15,2013-01-21 01:08:00,
2013-01-20 19:11:00,8.1,0.0,30.31,NNW,330,1.0,5.0,69,0.00,,,0.00,Wunderground v.1.15,2013-01-21 01:11:00,
2013-01-20 19:12:00,8.2,0.4,30.31,North,350,1.0,5.0,70,0.00,,,0.00,Wunderground v.1.15,2013-01-21 01:12:00,
2013-01-20 19:14:00,8.1,-0.3,30.31,NW,321,1.0,5.0,68,0.00,,,0.00,Wunderground v.1.15,2013-01-21 01:14:00,
2013-01-20 19:18:00,8.1,0.6,30.31,NW,320,1.0,5.0,71,0.00,,,0.00,Wunderground v.1.15,2013-01-21 01:18:00,
2013-01-20 19:19:00,8.1,0.9,30.31,NW,320,1.0,5.0,72,0.00,,,0.00,Wunderground v.1.15,2013-01-21 01:19:00,
2013-01-20 19:20:00,8.0,0.2,30.31,NW,320,1.0,5.0,70,0.00,,,0.00,Wunderground v.1.15,2013-01-21 01:20:00,
2013-01-20 19:22:00,8.0,0.2,30.31,NW,323,1.0,5.0,70,0.00,,,0.00,Wunderground v.1.15,2013-01-21 01:22:00,
2013-01-20 19:26:00,8.6,3.4,30.31,NW,323,1.0,5.0,79,0.00,,,0.00,Wunderground v.1.15,2013-01-21 01:26:00,
2013-01-20 19:28:00,8.9,4.3,30.31,NNW,344,1.0,5.0,81,0.00,,,0.00,Wunderground v.1.15,2013-01-21 01:28:00,
2013-01-20 19:31:00,9.2,4.6,30.31,NNW,339,1.0,5.0,81,0.00,,,0.00,Wunderground v.1.15,2013-01-21 01:31:00,
2013-01-20 19:32:00,9.0,3.8,30.31,NNW,340,1.0,5.0,79,0.00,,,0.00,Wunderground v.1.15,2013-01-21 01:32:00,
2013-01-20 19:34:00,8.9,3.2,30.31,NNW,340,2.0,5.0,77,0.00,,,0.00,Wunderground v.1.15,2013-01-21 01:34:00,
2013-01-20 19:38:00,8.6,1.7,30.31,NNW,336,2.0,5.0,73,0.00,,,0.00,Wunderground v.1.15,2013-01-21 01:38:00,
2013-01-20 19:39:00,8.4,0.6,30.31,NNW,336,2.0,5.0,70,0.00,,,0.00,Wunderground v.1.15,2013-01-21 01:39:00,
2013-01-20 19:40:00,8.4,1.2,30.31,NNW,334,2.0,5.0,72,0.00,,,0.00,Wunderground v.1.15,2013-01-21 01:40:00,
2013-01-20 19:43:00,8.5,2.5,30.31,NW,308,2.0,5.0,76,0.00,,,0.00,Wunderground v.1.15,2013-01-21 01:43:00,
2013-01-20 19:44:00,8.5,2.5,30.31,NW,317,2.0,5.0,76,0.00,,,0.00,Wunderground v.1.15,2013-01-21 01:44:00,
2013-01-20 19:46:00,8.4,1.8,30.30,NW,314,2.0,2.0,74,0.00,,,0.00,Wunderground v.1.15,2013-01-21 01:46:00,
2013-01-20 19:49:00,8.1,0.0,30.31,WNW,287,2.0,6.0,69,0.00,,,0.00,Wunderground v.1.15,2013-01-21 01:49:00,
2013-01-20 19:50:00,8.0,-0.4,30.31,NNW,329,2.0,6.0,68,0.00,,,0.00,Wunderground v.1.15,2013-01-21 01:50:00,
2013-01-20 19:52:00,8.0,0.0,30.31,NNW,340,0.0,-999.0,71,-99.99,,,0.00,weatherlink.com 1.10,2013-01-21 01:52:00,
2013-01-20 19:54:00,7.9,0.1,30.31,NNW,331,2.0,6.0,70,0.00,,,0.00,Wunderground v.1.15,2013-01-21 01:54:00,
2013-01-20 19:58:00,8.0,0.2,30.31,NW,320,2.0,3.0,70,0.00,,,0.00,Wunderground v.1.15,2013-01-21 01:58:00,
2013-01-20 20:00:00,8.0,0.5,30.31,NNW,340,2.0,4.0,71,0.00,,,0.00,Wunderground v.1.15,2013-01-21 02:00:00,
2013-01-20 20:03:00,8.0,-0.1,30.31,West,274,2.0,4.0,69,0.00,,,0.00,Wunderground v.1.15,2013-01-21 02:03:00,
2013-01-20 20:07:00,7.7,-1.3,30.31,WNW,296,2.0,2.0,66,0.00,,,0.00,Wunderground v.1.15,2013-01-21 02:07:00,
2013-01-20 20:08:00,7.7,-2.0,30.31,West,263,3.0,-999.0,66,-99.99,,,0.00,weatherlink.com 1.10,2013-01-21 02:08:00,
2013-01-20 20:12:00,7.8,0.0,30.31,WNW,282,2.0,6.0,70,0.00,,,0.00,Wunderground v.1.15,2013-01-21 02:12:00,
2013-01-20 20:15:00,7.8,0.3,30.31,NNW,343,2.0,6.0,71,0.00,,,0.00,Wunderground v.1.15,2013-01-21 02:15:00,
2013-01-20 20:18:00,8.0,1.1,30.31,WNW,298,2.0,6.0,73,0.00,,,0.00,Wunderground v.1.15,2013-01-21 02:18:00,
2013-01-20 20:22:00,7.9,-0.2,30.30,WNW,301,2.0,6.0,69,0.00,,,0.00,Wunderground v.1.15,2013-01-21 02:22:00,
2013-01-20 20:23:00,7.8,-1.0,30.30,West,271,2.0,-999.0,68,-99.99,,,0.00,weatherlink.com 1.10,2013-01-21 02:23:00,
2013-01-20 20:24:00,7.8,-1.2,30.30,West,269,2.0,7.0,66,0.00,,,0.00,Wunderground v.1.15,2013-01-21 02:24:00,
2013-01-20 20:27:00,7.8,0.3,30.30,NNW,335,2.0,5.0,71,0.00,,,0.00,Wunderground v.1.15,2013-01-21 02:27:00,
2013-01-20 20:28:00,7.7,-0.1,30.30,NNW,328,2.0,8.0,70,0.00,,,0.00,Wunderground v.1.15,2013-01-21 02:28:00,
2013-01-20 20:29:00,7.7,-0.4,30.30,NNW,343,2.0,8.0,69,0.00,,,0.00,Wunderground v.1.15,2013-01-21 02:29:00,
2013-01-20 20:30:00,7.6,-1.4,30.30,North,5,2.0,8.0,66,0.00,,,0.00,Wunderground v.1.15,2013-01-21 02:30:00,
2013-01-20 20:32:00,7.5,-1.8,30.30,WNW,303,3.0,8.0,65,0.00,,,0.00,Wunderground v.1.15,2013-01-21 02:32:00,
2013-01-20 20:35:00,7.5,-0.6,30.30,NW,322,3.0,8.0,69,0.00,,,0.00,Wunderground v.1.15,2013-01-21 02:35:00,
2013-01-20 20:36:00,7.5,-1.0,30.30,NNW,333,2.0,-999.0,68,-99.99,,,0.00,weatherlink.com 1.10,2013-01-21 02:36:00,
2013-01-20 20:40:00,7.5,-0.9,30.29,WNW,283,2.0,8.0,68,0.00,,,0.00,Wunderground v.1.15,2013-01-21 02:40:00,
2013-01-20 20:41:00,7.5,-0.9,30.30,NW,311,2.0,8.0,68,0.00,,,0.00,Wunderground v.1.15,2013-01-21 02:41:00,
2013-01-20 20:43:00,7.6,0.2,30.30,North,355,2.0,8.0,71,0.00,,,0.00,Wunderground v.1.15,2013-01-21 02:43:00,
2013-01-20 20:47:00,7.7,-0.1,30.29,NNW,344,2.0,8.0,70,0.00,,,0.00,Wunderground v.1.15,2013-01-21 02:47:00,
2013-01-20 20:48:00,7.7,-0.1,30.29,NNW,344,2.0,8.0,70,0.00,,,0.00,Wunderground v.1.15,2013-01-21 02:48:00,
2013-01-20 20:50:00,7.7,-0.1,30.29,NNW,343,2.0,8.0,70,0.00,,,0.00,Wunderground v.1.15,2013-01-21 02:50:00,
2013-01-20 20:52:00,7.6,-1.1,30.29,West,281,2.0,8.0,67,0.00,,,0.00,Wunderground v.1.15,2013-01-21 02:52:00,
2013-01-20 20:57:00,7.5,-1.2,30.30,West,280,3.0,4.0,67,0.00,,,0.00,Wunderground v.1.15,2013-01-21 02:57:00,
2013-01-20 20:58:00,7.5,-1.5,30.30,WNW,292,3.0,4.0,66,0.00,,,0.00,Wunderground v.1.15,2013-01-21 02:58:00,
2013-01-20 21:00:00,7.4,-1.3,30.30,WNW,295,3.0,4.0,67,0.00,,,0.00,Wunderground v.1.15,2013-01-21 03:00:00,
2013-01-20 21:02:00,7.4,-1.0,30.30,NW,319,2.0,4.0,68,0.00,,,0.00,Wunderground v.1.15,2013-01-21 03:02:00,
2013-01-20 21:03:00,7.4,-1.0,30.30,NW,321,2.0,4.0,68,0.00,,,0.00,Wunderground v.1.15,2013-01-21 03:03:00,
2013-01-20 21:05:00,7.4,-1.6,30.30,NW,320,2.0,4.0,66,0.00,,,0.00,Wunderground v.1.15,2013-01-21 03:05:00,
2013-01-20 21:08:00,7.5,0.0,30.30,NNW,332,0.0,-999.0,70,-99.99,,,0.00,weatherlink.com 1.10,2013-01-21 03:08:00,
2013-01-20 21:14:00,7.6,-0.5,30.29,North,5,1.0,3.0,69,0.00,,,0.00,Wunderground v.1.15,2013-01-21 03:14:00,
2013-01-20 21:16:00,7.7,0.5,30.29,NNW,333,1.0,1.0,72,0.00,,,0.00,Wunderground v.1.15,2013-01-21 03:16:00,
2013-01-20 21:17:00,7.7,0.5,30.29,NNW,333,1.0,2.0,72,0.00,,,0.00,Wunderground v.1.15,2013-01-21 03:17:00,
2013-01-20 21:18:00,7.8,0.6,30.29,NNW,333,1.0,2.0,72,0.00,,,0.00,Wunderground v.1.15,2013-01-21 03:18:00,
2013-01-20 21:21:00,7.8,0.9,30.29,West,266,1.0,2.0,73,0.00,,,0.00,Wunderground v.1.15,2013-01-21 03:21:00,
2013-01-20 21:22:00,7.8,0.9,30.29,WNW,284,1.0,4.0,73,0.00,,,0.00,Wunderground v.1.15,2013-01-21 03:22:00,
2013-01-20 21:23:00,7.9,0.0,30.29,WNW,284,3.0,-999.0,71,-99.99,,,0.00,weatherlink.com 1.10,2013-01-21 03:23:00,
2013-01-20 21:26:00,7.8,0.0,30.29,WNW,284,1.0,2.0,70,0.00,,,0.00,Wunderground v.1.15,2013-01-21 03:26:00,
2013-01-20 21:27:00,7.8,0.3,30.29,WNW,286,1.0,9.0,71,0.00,,,0.00,Wunderground v.1.15,2013-01-21 03:27:00,
2013-01-20 21:29:00,7.8,0.3,30.29,WNW,286,1.0,9.0,71,0.00,,,0.00,Wunderground v.1.15,2013-01-21 03:29:00,
2013-01-20 21:30:00,7.7,-0.4,30.29,WNW,286,1.0,9.0,69,0.00,,,0.00,Wunderground v.1.15,2013-01-21 03:30:00,
2013-01-20 21:34:00,7.6,-0.1,30.29,West,277,1.0,9.0,70,0.00,,,0.00,Wunderground v.1.15,2013-01-21 03:34:00,
2013-01-20 21:35:00,7.9,1.9,30.29,WNW,290,1.0,9.0,76,0.00,,,0.00,Wunderground v.1.15,2013-01-21 03:35:00,
2013-01-20 21:38:00,7.8,0.6,30.29,WSW,240,2.0,9.0,72,0.00,,,0.00,Wunderground v.1.15,2013-01-21 03:38:00,
2013-01-20 21:39:00,7.8,0.9,30.29,WSW,240,2.0,9.0,73,0.00,,,0.00,Wunderground v.1.15,2013-01-21 03:39:00,
2013-01-20 21:41:00,7.7,0.2,30.29,NNW,346,2.0,9.0,71,0.00,,,0.00,Wunderground v.1.15,2013-01-21 03:41:00,
2013-01-20 21:44:00,7.7,0.5,30.29,NNW,345,2.0,9.0,72,0.00,,,0.00,Wunderground v.1.15,2013-01-21 03:44:00,
2013-01-20 21:47:00,7.7,0.2,30.29,NNW,347,2.0,9.0,71,0.00,,,0.00,Wunderground v.1.15,2013-01-21 03:47:00,
2013-01-20 21:48:00,7.7,0.8,30.29,North,355,2.0,9.0,73,0.00,,,0.00,Wunderground v.1.15,2013-01-21 03:48:00,
2013-01-20 21:52:00,7.8,0.6,30.29,NW,308,2.0,9.0,72,0.00,,,0.00,Wunderground v.1.15,2013-01-21 03:52:00,
2013-01-20 21:53:00,7.7,0.2,30.29,NNW,340,2.0,9.0,71,0.00,,,0.00,Wunderground v.1.15,2013-01-21 03:53:00,
2013-01-20 21:54:00,7.7,0.0,30.29,NNW,330,4.0,-999.0,70,-99.99,,,0.00,weatherlink.com 1.10,2013-01-21 03:54:00,
2013-01-20 21:57:00,7.6,0.2,30.28,North,360,2.0,7.0,71,0.00,,,0.00,Wunderground v.1.15,2013-01-21 03:57:00,
2013-01-20 21:58:00,7.7,0.8,30.28,NNW,330,2.0,7.0,73,0.00,,,0.00,Wunderground v.1.15,2013-01-21 03:58:00,
2013-01-20 22:03:00,7.6,0.2,30.28,NW,305,2.0,7.0,71,0.00,,,0.00,Wunderground v.1.15,2013-01-21 04:03:00,
2013-01-20 22:04:00,7.6,0.2,30.28,NNW,337,2.0,7.0,71,0.00,,,0.00,Wunderground v.1.15,2013-01-21 04:04:00,
2013-01-20 22:07:00,7.4,-0.3,30.28,North,355,2.0,4.0,70,0.00,,,0.00,Wunderground v.1.15,2013-01-21 04:07:00,
2013-01-20 22:09:00,7.4,0.6,30.28,NNE,28,2.0,6.0,73,0.00,,,0.00,Wunderground v.1.15,2013-01-21 04:09:00,
2013-01-20 22:13:00,7.5,0.7,30.28,North,355,3.0,6.0,73,0.00,,,0.00,Wunderground v.1.15,2013-01-21 04:13:00,
2013-01-20 22:15:00,7.5,0.4,30.28,WNW,302,3.0,6.0,72,0.00,,,0.00,Wunderground v.1.15,2013-01-21 04:15:00,
2013-01-20 22:16:00,7.4,0.3,30.28,NNW,335,3.0,3.0,72,0.00,,,0.00,Wunderground v.1.15,2013-01-21 04:16:00,
2013-01-20 22:18:00,7.4,0.6,30.28,NNW,327,3.0,3.0,73,0.00,,,0.00,Wunderground v.1.15,2013-01-21 04:18:00,
2013-01-20 22:20:00,7.5,0.9,30.28,WNW,285,3.0,4.0,74,0.00,,,0.00,Wunderground v.1.15,2013-01-21 04:20:00,
2013-01-20 22:21:00,7.5,0.9,30.28,WNW,291,3.0,4.0,74,0.00,,,0.00,Wunderground v.1.15,2013-01-21 04:21:00,
2013-01-20 22:22:00,7.5,0.9,30.28,NW,310,3.0,4.0,74,0.00,,,0.00,Wunderground v.1.15,2013-01-21 04:22:00,
2013-01-20 22:27:00,7.2,-0.5,30.28,NNW,346,3.0,6.0,70,0.00,,,0.00,Wunderground v.1.15,2013-01-21 04:27:00,
2013-01-20 22:32:00,7.7,1.4,30.28,NW,315,3.0,6.0,75,0.00,,,0.00,Wunderground v.1.15,2013-01-21 04:32:00,
2013-01-20 22:34:00,7.6,1.0,30.27,NNW,346,2.0,6.0,74,0.00,,,0.00,Wunderground v.1.15,2013-01-21 04:34:00,
2013-01-20 22:35:00,7.7,1.4,30.27,NNW,346,2.0,6.0,75,0.00,,,0.00,Wunderground v.1.15,2013-01-21 04:35:00,
2013-01-20 22:37:00,7.8,2.1,30.27,NW,314,2.0,6.0,77,0.00,,,0.00,Wunderground v.1.15,2013-01-21 04:37:00,
2013-01-20 22:38:00,7.7,1.7,30.27,NW,314,2.0,6.0,76,0.00,,,0.00,Wunderground v.1.15,2013-01-21 04:38:00,
2013-01-20 22:43:00,7.5,0.9,30.27,NNW,329,3.0,6.0,74,0.00,,,0.00,Wunderground v.1.15,2013-01-21 04:43:00,
2013-01-20 22:44:00,7.5,0.9,30.27,WNW,294,3.0,6.0,74,0.00,,,0.00,Wunderground v.1.15,2013-01-21 04:44:00,
2013-01-20 22:45:00,7.4,0.3,30.27,NW,323,3.0,6.0,72,0.00,,,0.00,Wunderground v.1.15,2013-01-21 04:45:00,
2013-01-20 22:50:00,7.2,0.7,30.27,NNE,27,2.0,6.0,74,0.00,,,0.00,Wunderground v.1.15,2013-01-21 04:50:00,
2013-01-20 22:53:00,7.5,1.8,30.27,NNW,327,2.0,6.0,77,0.00,,,0.00,Wunderground v.1.15,2013-01-21 04:53:00,
2013-01-20 22:54:00,7.6,1.6,30.27,North,355,2.0,6.0,76,0.00,,,0.00,Wunderground v.1.15,2013-01-21 04:54:00,
2013-01-20 23:02:00,7.4,0.8,30.27,NW,315,2.0,3.0,74,0.00,,,0.00,Wunderground v.1.15,2013-01-21 05:02:00,
2013-01-20 23:05:00,7.4,1.1,30.27,WNW,288,3.0,4.0,75,0.00,,,0.00,Wunderground v.1.15,2013-01-21 05:05:00,
2013-01-20 23:09:00,7.2,0.0,30.27,West,270,1.0,-999.0,73,-99.99,,,0.00,weatherlink.com 1.10,2013-01-21 05:09:00,
2013-01-20 23:15:00,7.3,1.0,30.27,West,271,3.0,4.0,75,0.00,,,0.00,Wunderground v.1.15,2013-01-21 05:15:00,
2013-01-20 23:16:00,7.3,1.3,30.27,NW,322,3.0,3.0,76,0.00,,,0.00,Wunderground v.1.15,2013-01-21 05:16:00,
2013-01-20 23:17:00,7.3,1.3,30.27,NW,325,3.0,3.0,76,0.00,,,0.00,Wunderground v.1.15,2013-01-21 05:17:00,
2013-01-20 23:22:00,7.3,1.0,30.27,NW,322,2.0,5.0,75,0.00,,,0.00,Wunderground v.1.15,2013-01-21 05:22:00,
2013-01-20 23:23:00,7.2,1.0,30.27,NNW,348,5.0,-999.0,74,-99.99,,,0.00,weatherlink.com 1.10,2013-01-21 05:23:00,
2013-01-20 23:27:00,7.2,0.4,30.26,WSW,237,2.0,8.0,73,0.00,,,0.00,Wunderground v.1.15,2013-01-21 05:27:00,
2013-01-20 23:28:00,7.3,1.3,30.26,NW,313,2.0,8.0,76,0.00,,,0.00,Wunderground v.1.15,2013-01-21 05:28:00,
2013-01-20 23:29:00,7.4,2.3,30.26,NW,321,2.0,8.0,79,0.00,,,0.00,Wunderground v.1.15,2013-01-21 05:29:00,
2013-01-20 23:34:00,7.3,1.3,30.26,West,267,2.0,8.0,76,0.00,,,0.00,Wunderground v.1.15,2013-01-21 05:34:00,
2013-01-20 23:36:00,7.2,0.9,30.26,West,260,2.0,2.0,75,0.00,,,0.00,Wunderground v.1.15,2013-01-21 05:36:00,
2013-01-20 23:37:00,7.2,0.9,30.26,West,260,2.0,8.0,75,0.00,,,0.00,Wunderground v.1.15,2013-01-21 05:37:00,
2013-01-20 23:42:00,7.4,2.3,30.25,WNW,289,2.0,8.0,79,0.00,,,0.00,Wunderground v.1.15,2013-01-21 05:42:00,
2013-01-20 23:43:00,7.4,2.3,30.26,West,269,2.0,8.0,79,0.00,,,0.00,Wunderground v.1.15,2013-01-21 05:43:00,
2013-01-20 23:44:00,7.3,1.6,30.26,West,275,1.0,8.0,77,0.00,,,0.00,Wunderground v.1.15,2013-01-21 05:44:00,
2013-01-20 23:49:00,7.4,2.5,30.25,NNW,343,1.0,8.0,80,0.00,,,0.00,Wunderground v.1.15,2013-01-21 05:49:00,
2013-01-20 23:51:00,7.8,3.4,30.25,NNW,346,1.0,8.0,82,0.00,,,0.00,Wunderground v.1.15,2013-01-21 05:51:00,
2013-01-20 23:52:00,7.9,4.1,30.25,NW,305,1.0,8.0,84,0.00,,,0.00,Wunderground v.1.15,2013-01-21 05:52:00,
2013-01-20 23:53:00,8.0,3.9,30.25,NW,316,1.0,8.0,83,0.00,,,0.00,Wunderground v.1.15,2013-01-21 05:53:00,
2013-01-20 23:57:00,7.4,2.3,30.25,NNW,346,2.0,3.0,79,0.00,,,0.00,Wunderground v.1.15,2013-01-21 05:57:00,
2013-01-20 23:58:00,7.2,1.8,30.25,NW,319,2.0,6.0,78,0.00,,,0.00,Wunderground v.1.15,2013-01-21 05:58:00,
2013-01-20 23:59:00,7.1,1.7,30.25,NNW,347,3.0,6.0,78,0.00,,,0.00,Wunderground v.1.15,2013-01-21 05:59:00,